Observation data for Van Horn on 11/08/2019      Previous  Date       Current Mesonet Observations  Soil Data  Daily Summary Page  Observations in Plain Language
KVA1 080600Z 02008KT 04/02 A3043 RMK A01 T00410018  RH  085%=      5-min Rain = 0
KVA1 080601Z 02008KT 04/02 A3043 RMK A01 T00410018  RH  085%=      5-min Rain = 0
KVA1 080602Z 02008KT 04/02 A3043 RMK A01 T00410018  RH  085%=      5-min Rain = 0
KVA1 080603Z 02008KT 04/02 A3043 RMK A01 T00410018  RH  085%=      5-min Rain = 0
KVA1 080604Z 03007KT 04/02 A3043 RMK A01 T00400018  RH  085%=      5-min Rain = 0
KVA1 080605Z 02006KT 04/02 A3043 RMK A01 T00410018  RH  085%=      5-min Rain = 0
KVA1 080606Z 03008KT 04/02 A3043 RMK A01 T00410018  RH  085%=      5-min Rain = 0
KVA1 080607Z 03010KT 04/02 A3043 RMK A01 T00410018  RH  085%=      5-min Rain = 0
KVA1 080608Z 03010KT 04/02 A3043 RMK A01 T00410018  RH  085%=      5-min Rain = 0
KVA1 080609Z 03009KT 04/02 A3043 RMK A01 T00410018  RH  085%=      5-min Rain = 0
KVA1 080610Z 02009KT 04/02 A3042 RMK A01 T00410018  RH  085%=      5-min Rain = 0
KVA1 080611Z 02010KT 04/02 A3042 RMK A01 T00410019  RH  085%=      5-min Rain = 0
KVA1 080612Z 02009KT 04/02 A3042 RMK A01 T00410019  RH  085%=      5-min Rain = 0
KVA1 080613Z 01009KT 04/02 A3042 RMK A01 T00410019  RH  085%=      5-min Rain = 0
KVA1 080614Z 02010KT 04/02 A3042 RMK A01 T00410019  RH  086%=      5-min Rain = 0
KVA1 080615Z 02009KT 04/02 A3042 RMK A01 T00410019  RH  086%=      5-min Rain = 0
KVA1 080616Z 02008KT 04/02 A3042 RMK A01 T00410019  RH  086%=      5-min Rain = 0
KVA1 080617Z 03007KT 04/02 A3042 RMK A01 T00410019  RH  086%=      5-min Rain = 0
KVA1 080618Z 02007KT 04/02 A3042 RMK A01 T00410019  RH  086%=      5-min Rain = 0
KVA1 080619Z 03007KT 04/02 A3042 RMK A01 T00410019  RH  086%=      5-min Rain = 0
KVA1 080620Z 02007KT 04/02 A3043 RMK A01 T00410019  RH  085%=      5-min Rain = 0
KVA1 080621Z 03008KT 04/02 A3043 RMK A01 T00410019  RH  085%=      5-min Rain = 0
KVA1 080622Z 02006KT 04/02 A3043 RMK A01 T00420019  RH  085%=      5-min Rain = 0
KVA1 080623Z 01005KT 04/02 A3043 RMK A01 T00420020  RH  086%=      5-min Rain = 0
KVA1 080624Z 02007KT 04/02 A3043 RMK A01 T00410019  RH  086%=      5-min Rain = 0
KVA1 080625Z 01009KT 04/02 A3042 RMK A01 T00410019  RH  085%=      5-min Rain = 0
KVA1 080626Z 02007KT 04/02 A3042 RMK A01 T00410019  RH  085%=      5-min Rain = 0
KVA1 080627Z 03006KT 04/02 A3042 RMK A01 T00410020  RH  086%=      5-min Rain = 0
KVA1 080628Z 02007KT 04/02 A3042 RMK A01 T00410019  RH  086%=      5-min Rain = 0
KVA1 080629Z 02008KT 04/02 A3042 RMK A01 T00410019  RH  086%=      5-min Rain = 0
KVA1 080630Z 02009KT 04/02 A3042 RMK A01 T00410019  RH  086%=      5-min Rain = 0
KVA1 080631Z 02007KT 04/02 A3042 RMK A01 T00410019  RH  086%=      5-min Rain = 0
KVA1 080632Z 03005KT 04/02 A3042 RMK A01 T00410019  RH  086%=      5-min Rain = 0
KVA1 080633Z 03007KT 04/02 A3042 RMK A01 T00410020  RH  086%=      5-min Rain = 0
KVA1 080634Z 03008KT 04/02 A3042 RMK A01 T00410019  RH  086%=      5-min Rain = 0
KVA1 080635Z 03008KT 04/02 A3042 RMK A01 T00410019  RH  085%=      5-min Rain = 0
KVA1 080636Z 03007KT 04/02 A3042 RMK A01 T00410018  RH  085%=      5-min Rain = 0
KVA1 080637Z 01004KT 04/02 A3042 RMK A01 T00410018  RH  085%=      5-min Rain = 0
KVA1 080638Z 03006KT 04/02 A3042 RMK A01 T00410018  RH  085%=      5-min Rain = 0
KVA1 080639Z 03007KT 04/02 A3042 RMK A01 T00410018  RH  085%=      5-min Rain = 0
KVA1 080640Z 01006KT 04/02 A3042 RMK A01 T00410018  RH  085%=      5-min Rain = 0
KVA1 080641Z 02005KT 04/02 A3042 RMK A01 T00410018  RH  085%=      5-min Rain = 0
KVA1 080642Z 03006KT 04/02 A3042 RMK A01 T00410018  RH  085%=      5-min Rain = 0
KVA1 080643Z 03006KT 04/02 A3042 RMK A01 T00410018  RH  085%=      5-min Rain = 0
KVA1 080644Z 03007KT 04/02 A3042 RMK A01 T00410018  RH  085%=      5-min Rain = 0
KVA1 080645Z 02006KT 04/02 A3042 RMK A01 T00410018  RH  085%=      5-min Rain = 0
KVA1 080646Z 03007KT 04/02 A3042 RMK A01 T00410018  RH  085%=      5-min Rain = 0
KVA1 080647Z 02006KT 04/02 A3042 RMK A01 T00410018  RH  085%=      5-min Rain = 0
KVA1 080648Z 02007KT 04/02 A3042 RMK A01 T00410018  RH  085%=      5-min Rain = 0
KVA1 080649Z 03008KT 04/02 A3042 RMK A01 T00410017  RH  085%=      5-min Rain = 0
KVA1 080650Z 02006KT 04/02 A3042 RMK A01 T00410017  RH  085%=      5-min Rain = 0
KVA1 080651Z 01007KT 04/02 A3042 RMK A01 T00410018  RH  085%=      5-min Rain = 0
KVA1 080652Z 01009KT 04/02 A3042 RMK A01 T00410017  RH  085%=      5-min Rain = 0
KVA1 080653Z 01008KT 04/02 A3042 RMK A01 T00410017  RH  084%=      5-min Rain = 0
KVA1 080654Z 01007KT 04/02 A3042 RMK A01 T00410017  RH  085%=      5-min Rain = 0
KVA1 080655Z 02006KT 04/02 A3042 RMK A01 T00410017  RH  085%=      5-min Rain = 0
KVA1 080656Z 01008KT 04/02 A3042 RMK A01 T00410017  RH  085%=      5-min Rain = 0
KVA1 080657Z 01007KT 04/02 A3042 RMK A01 T00410017  RH  085%=      5-min Rain = 0
KVA1 080658Z 01006KT 04/02 A3042 RMK A01 T00410017  RH  085%=      5-min Rain = 0
KVA1 080659Z 02006KT 04/02 A3042 RMK A01 T00410017  RH  085%=      5-min Rain = 0
KVA1 080700Z 01004KT 04/02 A3042 RMK A01 T00410017  RH  085%=      5-min Rain = 0
KVA1 080701Z 02006KT 04/02 A3042 RMK A01 T00410017  RH  085%=      5-min Rain = 0
KVA1 080702Z 01007KT 04/02 A3042 RMK A01 T00410017  RH  085%=      5-min Rain = 0
KVA1 080703Z 02006KT 04/02 A3042 RMK A01 T00410017  RH  085%=      5-min Rain = 0
KVA1 080704Z 02007KT 04/02 A3042 RMK A01 T00410018  RH  085%=      5-min Rain = 0
KVA1 080705Z 02007KT 04/02 A3042 RMK A01 T00410018  RH  085%=      5-min Rain = 0
KVA1 080706Z 02007KT 04/02 A3041 RMK A01 T00410018  RH  085%=      5-min Rain = 0
KVA1 080707Z 02007KT 04/02 A3041 RMK A01 T00410018  RH  085%=      5-min Rain = 0
KVA1 080708Z 02008KT 04/02 A3041 RMK A01 T00410018  RH  085%=      5-min Rain = 0
KVA1 080709Z 02008KT 04/02 A3041 RMK A01 T00410018  RH  085%=      5-min Rain = 0
KVA1 080710Z 03008KT 04/02 A3041 RMK A01 T00410018  RH  085%=      5-min Rain = 0
KVA1 080711Z 02008KT 04/02 A3041 RMK A01 T00410018  RH  085%=      5-min Rain = 0
KVA1 080712Z 03006KT 04/02 A3041 RMK A01 T00410018  RH  085%=      5-min Rain = 0
KVA1 080713Z 02009KT 04/02 A3041 RMK A01 T00410018  RH  085%=      5-min Rain = 0
KVA1 080714Z 02009KT 04/02 A3041 RMK A01 T00410018  RH  085%=      5-min Rain = 0
KVA1 080715Z 02008KT 04/02 A3041 RMK A01 T00410018  RH  085%=      5-min Rain = 0
KVA1 080716Z 02007KT 04/02 A3041 RMK A01 T00410018  RH  085%=      5-min Rain = 0
KVA1 080717Z 02007KT 04/02 A3041 RMK A01 T00410018  RH  085%=      5-min Rain = 0
KVA1 080718Z 02008KT 04/02 A3041 RMK A01 T00410018  RH  085%=      5-min Rain = 0
KVA1 080719Z 02009KT 04/02 A3041 RMK A01 T00410018  RH  085%=      5-min Rain = 0
KVA1 080720Z 02007KT 04/02 A3041 RMK A01 T00410018  RH  085%=      5-min Rain = 0
KVA1 080721Z 02009KT 04/02 A3041 RMK A01 T00410018  RH  085%=      5-min Rain = 0
KVA1 080722Z 02009KT 04/02 A3041 RMK A01 T00410018  RH  085%=      5-min Rain = 0
KVA1 080723Z 02008KT 04/02 A3041 RMK A01 T00410018  RH  085%=      5-min Rain = 0
KVA1 080724Z 01008KT 04/02 A3041 RMK A01 T00420018  RH  085%=      5-min Rain = 0
KVA1 080725Z 02008KT 04/02 A3041 RMK A01 T00420018  RH  084%=      5-min Rain = 0
KVA1 080726Z 02007KT 04/02 A3041 RMK A01 T00420018  RH  084%=      5-min Rain = 0
KVA1 080727Z 02008KT 04/02 A3041 RMK A01 T00420018  RH  084%=      5-min Rain = 0
KVA1 080728Z 02007KT 04/02 A3041 RMK A01 T00420018  RH  084%=      5-min Rain = 0
KVA1 080729Z 01009KT 04/02 A3041 RMK A01 T00420018  RH  084%=      5-min Rain = 0
KVA1 080730Z 02009KT 04/02 A3041 RMK A01 T00420018  RH  084%=      5-min Rain = 0
KVA1 080731Z 02008KT 04/02 A3041 RMK A01 T00420018  RH  084%=      5-min Rain = 0
KVA1 080732Z 02006KT 04/02 A3041 RMK A01 T00420018  RH  084%=      5-min Rain = 0
KVA1 080733Z 01006KT 04/02 A3041 RMK A01 T00420018  RH  085%=      5-min Rain = 0
KVA1 080734Z 02007KT 04/02 A3041 RMK A01 T00420018  RH  084%=      5-min Rain = 0
KVA1 080735Z 02008KT 04/02 A3041 RMK A01 T00420018  RH  084%=      5-min Rain = 0
KVA1 080736Z 01006KT 04/02 A3041 RMK A01 T00420017  RH  084%=      5-min Rain = 0
KVA1 080737Z 01007KT 04/02 A3041 RMK A01 T00420018  RH  084%=      5-min Rain = 0
KVA1 080738Z 02008KT 04/02 A3041 RMK A01 T00420017  RH  084%=      5-min Rain = 0
KVA1 080739Z 01009KT 04/02 A3041 RMK A01 T00420017  RH  084%=      5-min Rain = 0
KVA1 080740Z 01009KT 04/02 A3041 RMK A01 T00420018  RH  084%=      5-min Rain = 0
KVA1 080741Z 01009KT 04/02 A3041 RMK A01 T00420018  RH  084%=      5-min Rain = 0
KVA1 080742Z 01009KT 04/02 A3041 RMK A01 T00420018  RH  084%=      5-min Rain = 0
KVA1 080743Z 02008KT 04/02 A3041 RMK A01 T00420018  RH  084%=      5-min Rain = 0
KVA1 080744Z 01007KT 04/02 A3041 RMK A01 T00420018  RH  084%=      5-min Rain = 0
KVA1 080745Z 01007KT 04/02 A3041 RMK A01 T00410017  RH  084%=      5-min Rain = 0
KVA1 080746Z 01008KT 04/02 A3041 RMK A01 T00420018  RH  084%=      5-min Rain = 0
KVA1 080747Z 01010KT 04/02 A3041 RMK A01 T00410017  RH  084%=      5-min Rain = 0
KVA1 080748Z 01009KT 04/02 A3041 RMK A01 T00420017  RH  084%=      5-min Rain = 0
KVA1 080749Z 01010KT 04/02 A3041 RMK A01 T00410017  RH  084%=      5-min Rain = 0
KVA1 080750Z 01010KT 04/02 A3041 RMK A01 T00410017  RH  084%=      5-min Rain = 0
KVA1 080751Z 01010KT 04/02 A3041 RMK A01 T00410017  RH  084%=      5-min Rain = 0
KVA1 080752Z 01008KT 04/02 A3041 RMK A01 T00400017  RH  084%=      5-min Rain = 0
KVA1 080753Z 02007KT 04/02 A3041 RMK A01 T00410017  RH  085%=      5-min Rain = 0
KVA1 080754Z 02008KT 04/02 A3041 RMK A01 T00410017  RH  084%=      5-min Rain = 0
KVA1 080755Z 02008KT 04/02 A3041 RMK A01 T00410017  RH  084%=      5-min Rain = 0
KVA1 080756Z 02009KT 04/02 A3041 RMK A01 T00410017  RH  084%=      5-min Rain = 0
KVA1 080757Z 02007KT 04/02 A3041 RMK A01 T00420017  RH  084%=      5-min Rain = 0
KVA1 080758Z 01008KT 04/02 A3041 RMK A01 T00410017  RH  084%=      5-min Rain = 0
KVA1 080759Z 01008KT 04/02 A3041 RMK A01 T00420017  RH  084%=      5-min Rain = 0
KVA1 080800Z 01008KT 04/02 A3041 RMK A01 T00420017  RH  084%=      5-min Rain = 0
KVA1 080801Z 01008KT 04/02 A304 RMK A01 T00420017  RH  084%=      5-min Rain = 0
KVA1 080802Z 02008KT 04/02 A304 RMK A01 T00420017  RH  084%=      5-min Rain = 0
KVA1 080803Z 01008KT 04/02 A304 RMK A01 T00420017  RH  084%=      5-min Rain = 0
KVA1 080804Z 02007KT 04/02 A304 RMK A01 T00420017  RH  084%=      5-min Rain = 0
KVA1 080805Z 02008KT 04/02 A304 RMK A01 T00420017  RH  084%=      5-min Rain = 0
KVA1 080806Z 01007KT 04/02 A304 RMK A01 T00420017  RH  084%=      5-min Rain = 0
KVA1 080807Z 01009KT 04/02 A304 RMK A01 T00420017  RH  084%=      5-min Rain = 0
KVA1 080808Z 01009KT 04/02 A304 RMK A01 T00420017  RH  084%=      5-min Rain = 0
KVA1 080809Z 02010KT 04/02 A304 RMK A01 T00420017  RH  084%=      5-min Rain = 0
KVA1 080810Z 02008KT 04/02 A304 RMK A01 T00420017  RH  084%=      5-min Rain = 0
KVA1 080811Z 02007KT 04/02 A304 RMK A01 T00420017  RH  084%=      5-min Rain = 0
KVA1 080812Z 02007KT 04/02 A304 RMK A01 T00420017  RH  084%=      5-min Rain = 0
KVA1 080813Z 01007KT 04/02 A304 RMK A01 T00420017  RH  084%=      5-min Rain = 0
KVA1 080814Z 02007KT 04/02 A304 RMK A01 T00420017  RH  083%=      5-min Rain = 0
KVA1 080815Z 02006KT 04/02 A304 RMK A01 T00430017  RH  083%=      5-min Rain = 0
KVA1 080816Z 01006KT 04/02 A304 RMK A01 T00430017  RH  083%=      5-min Rain = 0
KVA1 080817Z 01007KT 04/02 A304 RMK A01 T00420017  RH  083%=      5-min Rain = 0
KVA1 080818Z 01010KT 04/02 A304 RMK A01 T00420016  RH  083%=      5-min Rain = 0
KVA1 080819Z 01009KT 04/02 A304 RMK A01 T00430017  RH  083%=      5-min Rain = 0
KVA1 080820Z 01008KT 04/02 A304 RMK A01 T00420017  RH  083%=      5-min Rain = 0
KVA1 080821Z 01007KT 04/02 A304 RMK A01 T00420017  RH  084%=      5-min Rain = 0
KVA1 080822Z 01008KT 04/02 A304 RMK A01 T00420017  RH  084%=      5-min Rain = 0
KVA1 080823Z 02009KT 04/02 A304 RMK A01 T00420017  RH  083%=      5-min Rain = 0
KVA1 080824Z 02011KT 04/02 A304 RMK A01 T00420016  RH  083%=      5-min Rain = 0
KVA1 080825Z 02010KT 04/02 A304 RMK A01 T00420017  RH  083%=      5-min Rain = 0
KVA1 080826Z 01008KT 04/02 A304 RMK A01 T00420017  RH  083%=      5-min Rain = 0
KVA1 080827Z 01007KT 04/02 A304 RMK A01 T00420017  RH  083%=      5-min Rain = 0
KVA1 080828Z 01009KT 04/02 A304 RMK A01 T00430017  RH  083%=      5-min Rain = 0
KVA1 080829Z 02009KT 04/02 A304 RMK A01 T00430017  RH  083%=      5-min Rain = 0
KVA1 080830Z 02010KT 04/02 A304 RMK A01 T00430017  RH  083%=      5-min Rain = 0
KVA1 080831Z 02010KT 04/02 A304 RMK A01 T00430017  RH  083%=      5-min Rain = 0
KVA1 080832Z 01010KT 04/02 A304 RMK A01 T00430017  RH  083%=      5-min Rain = 0
KVA1 080833Z 01008KT 04/02 A304 RMK A01 T00430017  RH  083%=      5-min Rain = 0
KVA1 080834Z 01008KT 04/02 A304 RMK A01 T00430017  RH  083%=      5-min Rain = 0
KVA1 080835Z 01009KT 04/02 A304 RMK A01 T00430017  RH  083%=      5-min Rain = 0
KVA1 080836Z 02009KT 04/02 A304 RMK A01 T00430017  RH  083%=      5-min Rain = 0
KVA1 080837Z 03010KT 04/02 A304 RMK A01 T00430017  RH  083%=      5-min Rain = 0
KVA1 080838Z 02008KT 04/02 A304 RMK A01 T00440018  RH  083%=      5-min Rain = 0
KVA1 080839Z 01007KT 04/02 A304 RMK A01 T00430018  RH  083%=      5-min Rain = 0
KVA1 080840Z 02006KT 04/02 A304 RMK A01 T00430018  RH  083%=      5-min Rain = 0
KVA1 080841Z 02006KT 04/02 A304 RMK A01 T00440018  RH  083%=      5-min Rain = 0
KVA1 080842Z 01007KT 04/02 A304 RMK A01 T00440018  RH  083%=      5-min Rain = 0
KVA1 080843Z 01007KT 04/02 A304 RMK A01 T00440018  RH  083%=      5-min Rain = 0
KVA1 080844Z 02005KT 04/02 A304 RMK A01 T00440017  RH  083%=      5-min Rain = 0
KVA1 080845Z 03008KT 04/02 A304 RMK A01 T00440018  RH  083%=      5-min Rain = 0
KVA1 080846Z 03009KT 04/02 A304 RMK A01 T00440018  RH  083%=      5-min Rain = 0
KVA1 080847Z 01009KT 04/02 A304 RMK A01 T00440018  RH  083%=      5-min Rain = 0
KVA1 080848Z 01010KT 04/02 A304 RMK A01 T00440018  RH  083%=      5-min Rain = 0
KVA1 080849Z 01010KT 04/02 A304 RMK A01 T00440018  RH  083%=      5-min Rain = 0
KVA1 080850Z 01008KT 04/02 A304 RMK A01 T00440018  RH  083%=      5-min Rain = 0
KVA1 080851Z 01009KT 04/02 A304 RMK A01 T00440018  RH  083%=      5-min Rain = 0
KVA1 080852Z 01011KT 04/02 A304 RMK A01 T00440017  RH  083%=      5-min Rain = 0
KVA1 080853Z 01010KT 04/02 A304 RMK A01 T00440018  RH  083%=      5-min Rain = 0
KVA1 080854Z 01010KT 04/02 A304 RMK A01 T00440018  RH  083%=      5-min Rain = 0
KVA1 080855Z 01008KT 04/02 A304 RMK A01 T00440018  RH  083%=      5-min Rain = 0
KVA1 080856Z 01007KT 04/02 A304 RMK A01 T00440018  RH  083%=      5-min Rain = 0
KVA1 080857Z 00009KT 04/02 A304 RMK A01 T00440018  RH  083%=      5-min Rain = 0
KVA1 080858Z 01007KT 04/02 A304 RMK A01 T00440017  RH  083%=      5-min Rain = 0
KVA1 080859Z 01009KT 04/02 A304 RMK A01 T00440018  RH  083%=      5-min Rain = 0
KVA1 080900Z 01008KT 04/02 A304 RMK A01 T00440018  RH  083%=      5-min Rain = 0
KVA1 080901Z 01009KT 04/02 A304 RMK A01 T00440018  RH  083%=      5-min Rain = 0
KVA1 080902Z 01008KT 04/02 A304 RMK A01 T00440018  RH  083%=      5-min Rain = 0
KVA1 080903Z 02008KT 04/02 A304 RMK A01 T00440018  RH  083%=      5-min Rain = 0
KVA1 080904Z 01008KT 04/02 A304 RMK A01 T00440018  RH  083%=      5-min Rain = 0
KVA1 080905Z 01010KT 04/02 A304 RMK A01 T00440018  RH  083%=      5-min Rain = 0
KVA1 080906Z 02010KT 04/02 A304 RMK A01 T00440018  RH  083%=      5-min Rain = 0
KVA1 080907Z 02010KT 04/02 A3039 RMK A01 T00430018  RH  084%=      5-min Rain = 0
KVA1 080908Z 02009KT 04/02 A3039 RMK A01 T00430018  RH  084%=      5-min Rain = 0
KVA1 080909Z 02008KT 04/02 A3039 RMK A01 T00430018  RH  084%=      5-min Rain = 0
KVA1 080910Z 02009KT 04/02 A3039 RMK A01 T00430018  RH  084%=      5-min Rain = 0
KVA1 080911Z 03009KT 04/02 A3039 RMK A01 T00430018  RH  084%=      5-min Rain = 0
KVA1 080912Z 02009KT 04/02 A3039 RMK A01 T00430018  RH  084%=      5-min Rain = 0
KVA1 080913Z 02008KT 04/02 A3039 RMK A01 T00430018  RH  084%=      5-min Rain = 0
KVA1 080914Z 01010KT 04/02 A3039 RMK A01 T00440018  RH  084%=      5-min Rain = 0
KVA1 080915Z 02009KT 04/02 A3039 RMK A01 T00440019  RH  084%=      5-min Rain = 0
KVA1 080916Z 01009KT 04/02 A3039 RMK A01 T00440019  RH  084%=      5-min Rain = 0
KVA1 080917Z 01009KT 04/02 A3039 RMK A01 T00440019  RH  084%=      5-min Rain = 0
KVA1 080918Z 01010KT 04/02 A3039 RMK A01 T00440019  RH  084%=      5-min Rain = 0
KVA1 080919Z 02011KT 04/02 A3039 RMK A01 T00440020  RH  084%=      5-min Rain = 0
KVA1 080920Z 02009KT 04/02 A3039 RMK A01 T00430020  RH  084%=      5-min Rain = 0
KVA1 080921Z 02011KT 04/02 A3039 RMK A01 T00440020  RH  085%=      5-min Rain = 0
KVA1 080922Z 02012KT 04/02 A3039 RMK A01 T00430020  RH  085%=      5-min Rain = 0
KVA1 080923Z 02009KT 04/02 A3039 RMK A01 T00430020  RH  085%=      5-min Rain = 0
KVA1 080924Z 02009KT 04/02 A3039 RMK A01 T00430020  RH  085%=      5-min Rain = 0
KVA1 080925Z 02009KT 04/02 A3039 RMK A01 T00430020  RH  085%=      5-min Rain = 0
KVA1 080926Z 02010KT 04/02 A3039 RMK A01 T00430020  RH  085%=      5-min Rain = 0
KVA1 080927Z 02012KT 04/02 A3039 RMK A01 T00430020  RH  085%=      5-min Rain = 0
KVA1 080928Z 02012KT 04/02 A3039 RMK A01 T00430020  RH  085%=      5-min Rain = 0
KVA1 080929Z 02010KT 04/02 A3038 RMK A01 T00430020  RH  085%=      5-min Rain = 0
KVA1 080930Z 03010KT 04/02 A3038 RMK A01 T00430020  RH  085%=      5-min Rain = 0
KVA1 080931Z 02010KT 04/02 A3038 RMK A01 T00430020  RH  085%=      5-min Rain = 0
KVA1 080932Z 02011KT 04/02 A3038 RMK A01 T00430019  RH  085%=      5-min Rain = 0
KVA1 080933Z 03011KT 04/02 A3038 RMK A01 T00430020  RH  085%=      5-min Rain = 0
KVA1 080934Z 02011KT 04/02 A3038 RMK A01 T00430019  RH  085%=      5-min Rain = 0
KVA1 080935Z 02009KT 04/02 A3038 RMK A01 T00430020  RH  085%=      5-min Rain = 0
KVA1 080936Z 02009KT 04/02 A3038 RMK A01 T00430020  RH  085%=      5-min Rain = 0
KVA1 080937Z 02009KT 04/02 A3039 RMK A01 T00430020  RH  085%=      5-min Rain = 0
KVA1 080938Z 02009KT 04/02 A3039 RMK A01 T00430020  RH  085%=      5-min Rain = 0
KVA1 080939Z 02008G13KT 04/02 A3039 RMK A01 T00430020  RH  085%=      5-min Rain = 0
KVA1 080940Z 02010KT 04/02 A3039 RMK A01 T00430020  RH  085%=      5-min Rain = 0
KVA1 080941Z 01008KT 04/02 A3039 RMK A01 T00430020  RH  085%=      5-min Rain = 0
KVA1 080942Z 02011KT 04/02 A3039 RMK A01 T00430020  RH  085%=      5-min Rain = 0
KVA1 080943Z 02010KT 04/02 A3039 RMK A01 T00430020  RH  085%=      5-min Rain = 0
KVA1 080944Z 02010KT 04/02 A3039 RMK A01 T00430021  RH  085%=      5-min Rain = 0
KVA1 080945Z 01009KT 04/02 A3039 RMK A01 T00430021  RH  086%=      5-min Rain = 0
KVA1 080946Z 02008KT 04/02 A3039 RMK A01 T00430021  RH  086%=      5-min Rain = 0
KVA1 080947Z 01007G12KT 04/02 A3039 RMK A01 T00430022  RH  086%=      5-min Rain = 0
KVA1 080948Z 02010KT 04/02 A3039 RMK A01 T00430022  RH  086%=      5-min Rain = 0
KVA1 080949Z 01010KT 04/02 A3039 RMK A01 T00420021  RH  086%=      5-min Rain = 0
KVA1 080950Z 02009KT 04/02 A3039 RMK A01 T00420022  RH  086%=      5-min Rain = 0
KVA1 080951Z 02011KT 04/02 A3039 RMK A01 T00420022  RH  087%=      5-min Rain = 0
KVA1 080952Z 01009KT 04/02 A3039 RMK A01 T00420022  RH  087%=      5-min Rain = 0
KVA1 080953Z 01009KT 04/02 A3039 RMK A01 T00420023  RH  087%=      5-min Rain = 0
KVA1 080954Z 01010KT 04/02 A3039 RMK A01 T00420023  RH  087%=      5-min Rain = 0
KVA1 080955Z 01011KT 04/02 A3039 RMK A01 T00420022  RH  087%=      5-min Rain = 0
KVA1 080956Z 02008KT 04/02 A3039 RMK A01 T00420022  RH  087%=      5-min Rain = 0
KVA1 080957Z 01010KT 04/02 A3039 RMK A01 T00420023  RH  087%=      5-min Rain = 0
KVA1 080958Z 01010KT 04/02 A3039 RMK A01 T00420023  RH  087%=      5-min Rain = 0
KVA1 080959Z 01009KT 04/02 A3039 RMK A01 T00420022  RH  087%=      5-min Rain = 0
KVA1 081000Z 01008KT 04/02 A3039 RMK A01 T00420023  RH  087%=      5-min Rain = 0
KVA1 081001Z 01010KT 04/02 A304 RMK A01 T00420022  RH  087%=      5-min Rain = 0
KVA1 081002Z 02010KT 04/02 A304 RMK A01 T00420022  RH  087%=      5-min Rain = 0
KVA1 081003Z 01009KT 04/02 A304 RMK A01 T00420022  RH  087%=      5-min Rain = 0
KVA1 081004Z 01009KT 04/02 A304 RMK A01 T00420022  RH  087%=      5-min Rain = 0
KVA1 081005Z 02009KT 04/02 A304 RMK A01 T00420022  RH  087%=      5-min Rain = 0
KVA1 081006Z 01009KT 04/02 A304 RMK A01 T00420021  RH  087%=      5-min Rain = 0
KVA1 081007Z 02010KT 04/02 A304 RMK A01 T00420021  RH  086%=      5-min Rain = 0
KVA1 081008Z 02008KT 04/02 A304 RMK A01 T00420021  RH  086%=      5-min Rain = 0
KVA1 081009Z 01007KT 04/02 A304 RMK A01 T00420022  RH  086%=      5-min Rain = 0
KVA1 081010Z 02008KT 04/02 A304 RMK A01 T00430022  RH  087%=      5-min Rain = 0
KVA1 081011Z 01011KT 04/02 A304 RMK A01 T00430022  RH  086%=      5-min Rain = 0
KVA1 081012Z 01010KT 04/02 A3039 RMK A01 T00430022  RH  086%=      5-min Rain = 0
KVA1 081013Z 02010KT 04/02 A3039 RMK A01 T00430021  RH  086%=      5-min Rain = 0
KVA1 081014Z 02009KT 04/02 A3039 RMK A01 T00420021  RH  086%=      5-min Rain = 0
KVA1 081015Z 01008KT 04/02 A3039 RMK A01 T00420021  RH  086%=      5-min Rain = 0
KVA1 081016Z 01010KT 04/02 A3039 RMK A01 T00430022  RH  086%=      5-min Rain = 0
KVA1 081017Z 01009KT 04/02 A3039 RMK A01 T00420021  RH  086%=      5-min Rain = 0
KVA1 081018Z 01011KT 04/02 A3039 RMK A01 T00430021  RH  086%=      5-min Rain = 0
KVA1 081019Z 02008KT 04/02 A3039 RMK A01 T00420021  RH  086%=      5-min Rain = 0
KVA1 081020Z 01009KT 04/02 A3039 RMK A01 T00420021  RH  086%=      5-min Rain = 0
KVA1 081021Z 02008KT 04/02 A304 RMK A01 T00420021  RH  086%=      5-min Rain = 0
KVA1 081022Z 02011KT 04/02 A304 RMK A01 T00420021  RH  086%=      5-min Rain = 0
KVA1 081023Z 02009KT 04/02 A304 RMK A01 T00430022  RH  086%=      5-min Rain = 0
KVA1 081024Z 02009KT 04/02 A304 RMK A01 T00420021  RH  086%=      5-min Rain = 0
KVA1 081025Z 02011KT 04/02 A304 RMK A01 T00420021  RH  086%=      5-min Rain = 0
KVA1 081026Z 02010KT 04/02 A304 RMK A01 T00420021  RH  086%=      5-min Rain = 0
KVA1 081027Z 02009KT 04/02 A304 RMK A01 T00420021  RH  086%=      5-min Rain = 0
KVA1 081028Z 02007KT 04/02 A3039 RMK A01 T00420021  RH  086%=      5-min Rain = 0
KVA1 081029Z 02009KT 04/02 A3039 RMK A01 T00430021  RH  086%=      5-min Rain = 0
KVA1 081030Z 03008KT 04/02 A3039 RMK A01 T00430022  RH  086%=      5-min Rain = 0
KVA1 081031Z 02008KT 04/02 A3039 RMK A01 T00430021  RH  086%=      5-min Rain = 0
KVA1 081032Z 02009KT 04/02 A3039 RMK A01 T00430022  RH  086%=      5-min Rain = 0
KVA1 081033Z 02009KT 04/02 A3039 RMK A01 T00440022  RH  086%=      5-min Rain = 0
KVA1 081034Z 02009KT 04/02 A304 RMK A01 T00430021  RH  086%=      5-min Rain = 0
KVA1 081035Z 02010KT 04/02 A304 RMK A01 T00430022  RH  086%=      5-min Rain = 0
KVA1 081036Z 02009KT 04/02 A304 RMK A01 T00430022  RH  086%=      5-min Rain = 0
KVA1 081037Z 02010KT 04/02 A304 RMK A01 T00430022  RH  086%=      5-min Rain = 0
KVA1 081038Z 02009KT 04/02 A304 RMK A01 T00430022  RH  086%=      5-min Rain = 0
KVA1 081039Z 02008KT 04/02 A304 RMK A01 T00430022  RH  086%=      5-min Rain = 0
KVA1 081040Z 02008KT 04/02 A304 RMK A01 T00430022  RH  086%=      5-min Rain = 0
KVA1 081041Z 02010KT 04/02 A304 RMK A01 T00430022  RH  086%=      5-min Rain = 0
KVA1 081042Z 02010KT 04/02 A304 RMK A01 T00440022  RH  086%=      5-min Rain = 0
KVA1 081043Z 03009KT 04/02 A304 RMK A01 T00430022  RH  086%=      5-min Rain = 0
KVA1 081044Z 03009KT 04/02 A304 RMK A01 T00430022  RH  086%=      5-min Rain = 0
KVA1 081045Z 03010KT 04/02 A304 RMK A01 T00430022  RH  086%=      5-min Rain = 0
KVA1 081046Z 03008KT 04/02 A304 RMK A01 T00430022  RH  086%=      5-min Rain = 0
KVA1 081047Z 02008KT 04/02 A304 RMK A01 T00430021  RH  086%=      5-min Rain = 0
KVA1 081048Z 03009KT 04/02 A304 RMK A01 T00430022  RH  086%=      5-min Rain = 0
KVA1 081049Z 03008KT 04/02 A304 RMK A01 T00430022  RH  086%=      5-min Rain = 0
KVA1 081050Z 03007KT 04/02 A304 RMK A01 T00440022  RH  086%=      5-min Rain = 0
KVA1 081051Z 02008KT 04/02 A304 RMK A01 T00440022  RH  086%=      5-min Rain = 0
KVA1 081052Z 03009KT 04/02 A304 RMK A01 T00440022  RH  085%=      5-min Rain = 0
KVA1 081053Z 03008KT 04/02 A304 RMK A01 T00440022  RH  085%=      5-min Rain = 0
KVA1 081054Z 03008KT 04/02 A304 RMK A01 T00440022  RH  085%=      5-min Rain = 0
KVA1 081055Z 03008KT 04/02 A304 RMK A01 T00440022  RH  085%=      5-min Rain = 0
KVA1 081056Z 03009KT 04/02 A304 RMK A01 T00440022  RH  085%=      5-min Rain = 0
KVA1 081057Z 03008KT 04/02 A304 RMK A01 T00440022  RH  085%=      5-min Rain = 0
KVA1 081058Z 02009KT 04/02 A304 RMK A01 T00440022  RH  085%=      5-min Rain = 0
KVA1 081059Z 03009KT 04/02 A304 RMK A01 T00440021  RH  085%=      5-min Rain = 0
KVA1 081100Z 02008KT 04/02 A304 RMK A01 T00440022  RH  085%=      5-min Rain = 0
KVA1 081101Z 03007KT 04/02 A304 RMK A01 T00440022  RH  085%=      5-min Rain = 0
KVA1 081102Z 03007KT 04/02 A304 RMK A01 T00440022  RH  085%=      5-min Rain = 0
KVA1 081103Z 03007KT 04/02 A304 RMK A01 T00440022  RH  085%=      5-min Rain = 0
KVA1 081104Z 03007KT 05/02 A3039 RMK A01 T00450022  RH  085%=      5-min Rain = 0
KVA1 081105Z 03007KT 05/02 A3039 RMK A01 T00450022  RH  085%=      5-min Rain = 0
KVA1 081106Z 03008KT 05/02 A3039 RMK A01 T00450022  RH  085%=      5-min Rain = 0
KVA1 081107Z 03008KT 05/02 A3039 RMK A01 T00450022  RH  085%=      5-min Rain = 0
KVA1 081108Z 03010KT 05/02 A3039 RMK A01 T00450022  RH  085%=      5-min Rain = 0
KVA1 081109Z 03010KT 05/02 A3039 RMK A01 T00450022  RH  085%=      5-min Rain = 0
KVA1 081110Z 04009KT 05/02 A3039 RMK A01 T00450022  RH  085%=      5-min Rain = 0
KVA1 081111Z 03009KT 05/02 A3039 RMK A01 T00450022  RH  085%=      5-min Rain = 0
KVA1 081112Z 04008KT 05/02 A3039 RMK A01 T00450022  RH  085%=      5-min Rain = 0
KVA1 081113Z 04008KT 05/02 A3039 RMK A01 T00450022  RH  085%=      5-min Rain = 0
KVA1 081114Z 03008KT 05/02 A3039 RMK A01 T00450022  RH  085%=      5-min Rain = 0
KVA1 081115Z 03008KT 05/02 A3039 RMK A01 T00450022  RH  085%=      5-min Rain = 0
KVA1 081116Z 03007KT 05/02 A3039 RMK A01 T00450022  RH  085%=      5-min Rain = 0
KVA1 081117Z 02009KT 05/02 A3039 RMK A01 T00450022  RH  085%=      5-min Rain = 0
KVA1 081118Z 02007KT 05/02 A3039 RMK A01 T00450022  RH  085%=      5-min Rain = 0
KVA1 081119Z 03008KT 05/02 A304 RMK A01 T00450022  RH  085%=      5-min Rain = 0
KVA1 081120Z 02007KT 05/02 A304 RMK A01 T00450022  RH  085%=      5-min Rain = 0
KVA1 081121Z 02007KT 05/02 A304 RMK A01 T00450022  RH  085%=      5-min Rain = 0
KVA1 081122Z 03006KT 05/02 A304 RMK A01 T00450022  RH  085%=      5-min Rain = 0
KVA1 081123Z 03007KT 05/02 A304 RMK A01 T00450022  RH  085%=      5-min Rain = 0
KVA1 081124Z 02006KT 05/02 A304 RMK A01 T00450023  RH  085%=      5-min Rain = 0
KVA1 081125Z 02005KT 05/02 A304 RMK A01 T00450023  RH  085%=      5-min Rain = 0
KVA1 081126Z 02005KT 05/02 A304 RMK A01 T00450023  RH  085%=      5-min Rain = 0
KVA1 081127Z 02006KT 05/02 A304 RMK A01 T00450023  RH  085%=      5-min Rain = 0
KVA1 081128Z 03006KT 05/02 A304 RMK A01 T00450022  RH  085%=      5-min Rain = 0
KVA1 081129Z 02007KT 05/02 A304 RMK A01 T00450022  RH  085%=      5-min Rain = 0
KVA1 081130Z 02008KT 05/02 A304 RMK A01 T00450023  RH  085%=      5-min Rain = 0
KVA1 081131Z 02007KT 05/02 A304 RMK A01 T00450022  RH  085%=      5-min Rain = 0
KVA1 081132Z 03006KT 05/02 A304 RMK A01 T00450023  RH  085%=      5-min Rain = 0
KVA1 081133Z 02006KT 05/02 A304 RMK A01 T00450023  RH  085%=      5-min Rain = 0
KVA1 081134Z 02007KT 05/02 A304 RMK A01 T00450023  RH  085%=      5-min Rain = 0
KVA1 081135Z 02007KT 05/02 A304 RMK A01 T00450023  RH  085%=      5-min Rain = 0
KVA1 081136Z 02008KT 05/02 A304 RMK A01 T00450023  RH  085%=      5-min Rain = 0
KVA1 081137Z 02008KT 05/02 A304 RMK A01 T00450023  RH  085%=      5-min Rain = 0
KVA1 081138Z 02008KT 05/02 A304 RMK A01 T00450023  RH  085%=      5-min Rain = 0
KVA1 081139Z 02007KT 05/02 A304 RMK A01 T00450023  RH  086%=      5-min Rain = 0
KVA1 081140Z 02006KT 05/02 A304 RMK A01 T00450023  RH  086%=      5-min Rain = 0
KVA1 081141Z 02006KT 05/02 A304 RMK A01 T00450023  RH  086%=      5-min Rain = 0
KVA1 081142Z 02005KT 05/02 A304 RMK A01 T00450023  RH  086%=      5-min Rain = 0
KVA1 081143Z 02007KT 05/02 A304 RMK A01 T00450023  RH  086%=      5-min Rain = 0
KVA1 081144Z 02007KT 05/02 A304 RMK A01 T00450023  RH  085%=      5-min Rain = 0
KVA1 081145Z 02007KT 05/02 A304 RMK A01 T00450023  RH  085%=      5-min Rain = 0
KVA1 081146Z 02007KT 05/02 A304 RMK A01 T00450023  RH  086%=      5-min Rain = 0
KVA1 081147Z 02007KT 05/02 A304 RMK A01 T00450023  RH  086%=      5-min Rain = 0
KVA1 081148Z 01008KT 05/02 A304 RMK A01 T00450023  RH  086%=      5-min Rain = 0
KVA1 081149Z 02006KT 05/02 A304 RMK A01 T00450023  RH  085%=      5-min Rain = 0
KVA1 081150Z 02008KT 05/02 A304 RMK A01 T00450023  RH  086%=      5-min Rain = 0
KVA1 081151Z 02007KT 05/02 A304 RMK A01 T00450023  RH  086%=      5-min Rain = 0
KVA1 081152Z 02005KT 05/02 A304 RMK A01 T00450023  RH  086%=      5-min Rain = 0
KVA1 081153Z 02005KT 05/02 A304 RMK A01 T00450023  RH  086%=      5-min Rain = 0
KVA1 081154Z 02007KT 05/02 A304 RMK A01 T00450023  RH  086%=      5-min Rain = 0
KVA1 081155Z 01007KT 05/02 A304 RMK A01 T00450023  RH  085%=      5-min Rain = 0
KVA1 081156Z 02006KT 05/02 A304 RMK A01 T00450023  RH  085%=      5-min Rain = 0
KVA1 081157Z 02006KT 05/02 A304 RMK A01 T00460023  RH  085%=      5-min Rain = 0
KVA1 081158Z 02007KT 05/02 A304 RMK A01 T00460023  RH  085%=      5-min Rain = 0
KVA1 081159Z 02007KT 05/02 A304 RMK A01 T00460023  RH  085%=      5-min Rain = 0
KVA1 081200Z 02008KT 05/02 A304 RMK A01 T00460024  RH  086%=      5-min Rain = 0
KVA1 081201Z 02008KT 05/02 A304 RMK A01 T00460024  RH  086%=      5-min Rain = 0
KVA1 081202Z 02007KT 05/02 A304 RMK A01 T00460023  RH  086%=      5-min Rain = 0
KVA1 081203Z 03006KT 05/02 A304 RMK A01 T00460023  RH  086%=      5-min Rain = 0
KVA1 081204Z 03007KT 05/02 A304 RMK A01 T00460023  RH  086%=      5-min Rain = 0
KVA1 081205Z 03006KT 05/02 A304 RMK A01 T00450023  RH  086%=      5-min Rain = 0
KVA1 081206Z 03007KT 05/02 A304 RMK A01 T00460023  RH  085%=      5-min Rain = 0
KVA1 081207Z 03010KT 05/02 A304 RMK A01 T00460023  RH  085%=      5-min Rain = 0
KVA1 081208Z 02008KT 05/02 A304 RMK A01 T00460024  RH  085%=      5-min Rain = 0
KVA1 081209Z 02008KT 05/02 A304 RMK A01 T00460024  RH  085%=      5-min Rain = 0
KVA1 081210Z 02009KT 05/02 A304 RMK A01 T00460023  RH  085%=      5-min Rain = 0
KVA1 081211Z 02007KT 05/02 A304 RMK A01 T00460023  RH  086%=      5-min Rain = 0
KVA1 081212Z 02006KT 05/02 A304 RMK A01 T00460024  RH  086%=      5-min Rain = 0
KVA1 081213Z 02006KT 05/02 A304 RMK A01 T00460024  RH  086%=      5-min Rain = 0
KVA1 081214Z 03006KT 05/02 A304 RMK A01 T00460024  RH  086%=      5-min Rain = 0
KVA1 081215Z 03005KT 05/02 A304 RMK A01 T00460024  RH  086%=      5-min Rain = 0
KVA1 081216Z 02005KT 05/02 A304 RMK A01 T00460024  RH  086%=      5-min Rain = 0
KVA1 081217Z 02008KT 05/02 A304 RMK A01 T00460024  RH  086%=      5-min Rain = 0
KVA1 081218Z 02007KT 05/02 A304 RMK A01 T00460024  RH  085%=      5-min Rain = 0
KVA1 081219Z 02007KT 05/02 A304 RMK A01 T00460024  RH  086%=      5-min Rain = 0
KVA1 081220Z 02006KT 05/02 A304 RMK A01 T00460024  RH  086%=      5-min Rain = 0
KVA1 081221Z 02006KT 05/02 A304 RMK A01 T00450023  RH  086%=      5-min Rain = 0
KVA1 081222Z 02008KT 05/02 A304 RMK A01 T00460024  RH  086%=      5-min Rain = 0
KVA1 081223Z 02008KT 05/02 A304 RMK A01 T00460024  RH  086%=      5-min Rain = 0
KVA1 081224Z 02007KT 05/02 A304 RMK A01 T00460024  RH  086%=      5-min Rain = 0
KVA1 081225Z 02008KT 05/02 A304 RMK A01 T00460024  RH  086%=      5-min Rain = 0
KVA1 081226Z 01007KT 05/02 A304 RMK A01 T00460024  RH  086%=      5-min Rain = 0
KVA1 081227Z 02006KT 05/02 A304 RMK A01 T00460024  RH  086%=      5-min Rain = 0
KVA1 081228Z 02008KT 05/02 A304 RMK A01 T00460024  RH  086%=      5-min Rain = 0
KVA1 081229Z 03006KT 05/02 A304 RMK A01 T00460024  RH  086%=      5-min Rain = 0
KVA1 081230Z 02006KT 05/02 A304 RMK A01 T00460024  RH  086%=      5-min Rain = 0
KVA1 081231Z 02005KT 05/02 A304 RMK A01 T00460024  RH  086%=      5-min Rain = 0
KVA1 081232Z 01006KT 05/02 A3041 RMK A01 T00460024  RH  086%=      5-min Rain = 0
KVA1 081233Z 01005KT 05/02 A3041 RMK A01 T00460024  RH  086%=      5-min Rain = 0
KVA1 081234Z 02004KT 05/02 A3041 RMK A01 T00460024  RH  086%=      5-min Rain = 0
KVA1 081235Z 01004KT 05/02 A3041 RMK A01 T00460024  RH  086%=      5-min Rain = 0
KVA1 081236Z 02007KT 05/02 A3041 RMK A01 T00460024  RH  086%=      5-min Rain = 0
KVA1 081237Z 01006KT 05/02 A3041 RMK A01 T00460024  RH  086%=      5-min Rain = 0
KVA1 081238Z 02007KT 05/02 A3041 RMK A01 T00470024  RH  086%=      5-min Rain = 0
KVA1 081239Z 02006KT 05/02 A3041 RMK A01 T00460024  RH  086%=      5-min Rain = 0
KVA1 081240Z 02006KT 05/03 A3041 RMK A01 T00460025  RH  086%=      5-min Rain = 0
KVA1 081241Z 01006KT 05/03 A3041 RMK A01 T00460025  RH  086%=      5-min Rain = 0
KVA1 081242Z 01006KT 05/03 A3041 RMK A01 T00470025  RH  086%=      5-min Rain = 0
KVA1 081243Z 02007KT 05/02 A3041 RMK A01 T00460024  RH  086%=      5-min Rain = 0
KVA1 081244Z 02006KT 05/02 A3041 RMK A01 T00460024  RH  086%=      5-min Rain = 0
KVA1 081245Z 01006KT 05/02 A3041 RMK A01 T00460024  RH  086%=      5-min Rain = 0
KVA1 081246Z 02006KT 05/02 A3041 RMK A01 T00460024  RH  086%=      5-min Rain = 0
KVA1 081247Z 02007KT 05/02 A3041 RMK A01 T00460024  RH  086%=      5-min Rain = 0
KVA1 081248Z 02006KT 05/02 A3041 RMK A01 T00460024  RH  086%=      5-min Rain = 0
KVA1 081249Z 02006KT 05/02 A3041 RMK A01 T00460024  RH  086%=      5-min Rain = 0
KVA1 081250Z 02008KT 05/02 A3041 RMK A01 T00460024  RH  086%=      5-min Rain = 0
KVA1 081251Z 02008KT 05/02 A3041 RMK A01 T00460024  RH  086%=      5-min Rain = 0
KVA1 081252Z 02006KT 05/02 A3041 RMK A01 T00460024  RH  086%=      5-min Rain = 0
KVA1 081253Z 02007KT 05/03 A3041 RMK A01 T00460025  RH  086%=      5-min Rain = 0
KVA1 081254Z 02006KT 05/03 A3041 RMK A01 T00460025  RH  086%=      5-min Rain = 0
KVA1 081255Z 02007KT 05/03 A3041 RMK A01 T00460025  RH  086%=      5-min Rain = 0
KVA1 081256Z 02006KT 05/02 A3041 RMK A01 T00460024  RH  086%=      5-min Rain = 0
KVA1 081257Z 02007KT 05/03 A3041 RMK A01 T00470025  RH  086%=      5-min Rain = 0
KVA1 081258Z 02007KT 05/03 A3041 RMK A01 T00470025  RH  086%=      5-min Rain = 0
KVA1 081259Z 02007KT 05/03 A3041 RMK A01 T00470025  RH  086%=      5-min Rain = 0
KVA1 081300Z 02006KT 05/03 A3041 RMK A01 T00470025  RH  086%=      5-min Rain = 0
KVA1 081301Z 02007KT 05/03 A3041 RMK A01 T00470025  RH  086%=      5-min Rain = 0
KVA1 081302Z 02006KT 05/03 A3041 RMK A01 T00470025  RH  086%=      5-min Rain = 0
KVA1 081303Z 02007KT 05/03 A3041 RMK A01 T00470025  RH  086%=      5-min Rain = 0
KVA1 081304Z 03007KT 05/03 A3041 RMK A01 T00470025  RH  086%=      5-min Rain = 0
KVA1 081305Z 02006KT 05/03 A3041 RMK A01 T00470025  RH  086%=      5-min Rain = 0
KVA1 081306Z 02007KT 05/03 A3041 RMK A01 T00470025  RH  085%=      5-min Rain = 0
KVA1 081307Z 02008KT 05/03 A3041 RMK A01 T00470025  RH  085%=      5-min Rain = 0
KVA1 081308Z 02007KT 05/03 A3041 RMK A01 T00480025  RH  085%=      5-min Rain = 0
KVA1 081309Z 03007KT 05/03 A3041 RMK A01 T00470025  RH  085%=      5-min Rain = 0
KVA1 081310Z 03007KT 05/03 A3041 RMK A01 T00470025  RH  085%=      5-min Rain = 0
KVA1 081311Z 03008KT 05/03 A3041 RMK A01 T00470025  RH  085%=      5-min Rain = 0
KVA1 081312Z 02005KT 05/03 A3041 RMK A01 T00480025  RH  085%=      5-min Rain = 0
KVA1 081313Z 01006KT 05/03 A3041 RMK A01 T00480025  RH  085%=      5-min Rain = 0
KVA1 081314Z 01007KT 05/03 A3041 RMK A01 T00480025  RH  085%=      5-min Rain = 0
KVA1 081315Z 01007KT 05/03 A3041 RMK A01 T00480025  RH  085%=      5-min Rain = 0
KVA1 081316Z 02008KT 05/03 A3041 RMK A01 T00480025  RH  085%=      5-min Rain = 0
KVA1 081317Z 02007KT 05/03 A3041 RMK A01 T00480025  RH  085%=      5-min Rain = 0
KVA1 081318Z 02007KT 05/03 A3041 RMK A01 T00480025  RH  085%=      5-min Rain = 0
KVA1 081319Z 02007KT 05/03 A3041 RMK A01 T00480026  RH  085%=      5-min Rain = 0
KVA1 081320Z 01005KT 05/03 A3041 RMK A01 T00480025  RH  085%=      5-min Rain = 0
KVA1 081321Z 01006KT 05/03 A3041 RMK A01 T00480026  RH  085%=      5-min Rain = 0
KVA1 081322Z 02006KT 05/03 A3041 RMK A01 T00490026  RH  085%=      5-min Rain = 0
KVA1 081323Z 03007KT 05/03 A3041 RMK A01 T00480026  RH  085%=      5-min Rain = 0
KVA1 081324Z 02008KT 05/03 A3041 RMK A01 T00480026  RH  085%=      5-min Rain = 0
KVA1 081325Z 02007KT 05/03 A3041 RMK A01 T00480026  RH  085%=      5-min Rain = 0
KVA1 081326Z 02006KT 05/03 A3041 RMK A01 T00480026  RH  085%=      5-min Rain = 0
KVA1 081327Z 02006KT 05/03 A3041 RMK A01 T00480026  RH  085%=      5-min Rain = 0
KVA1 081328Z 02007KT 05/03 A3041 RMK A01 T00490026  RH  085%=      5-min Rain = 0
KVA1 081329Z 02007KT 05/03 A3041 RMK A01 T00490026  RH  085%=      5-min Rain = 0
KVA1 081330Z 02005KT 05/03 A3041 RMK A01 T00490026  RH  085%=      5-min Rain = 0
KVA1 081331Z 02007KT 05/03 A3041 RMK A01 T00490026  RH  085%=      5-min Rain = 0
KVA1 081332Z 02007KT 05/03 A3041 RMK A01 T00490026  RH  085%=      5-min Rain = 0
KVA1 081333Z 01007KT 05/03 A3041 RMK A01 T00490026  RH  085%=      5-min Rain = 0
KVA1 081334Z 02006KT 05/03 A3041 RMK A01 T00490026  RH  085%=      5-min Rain = 0
KVA1 081335Z 02007KT 05/03 A3041 RMK A01 T00490027  RH  085%=      5-min Rain = 0
KVA1 081336Z 02007KT 05/03 A3041 RMK A01 T00490026  RH  085%=      5-min Rain = 0
KVA1 081337Z 01006KT 05/03 A3041 RMK A01 T00490026  RH  085%=      5-min Rain = 0
KVA1 081338Z 02005KT 05/03 A3041 RMK A01 T00500027  RH  085%=      5-min Rain = 0
KVA1 081339Z 02007KT 05/03 A3041 RMK A01 T00500027  RH  085%=      5-min Rain = 0
KVA1 081340Z 02006KT 05/03 A3041 RMK A01 T00500026  RH  085%=      5-min Rain = 0
KVA1 081341Z 02005KT 05/03 A3041 RMK A01 T00500027  RH  085%=      5-min Rain = 0
KVA1 081342Z 02005KT 05/03 A3041 RMK A01 T00500027  RH  085%=      5-min Rain = 0
KVA1 081343Z 01006KT 05/03 A3041 RMK A01 T00500026  RH  085%=      5-min Rain = 0
KVA1 081344Z 02006KT 05/03 A3041 RMK A01 T00500026  RH  085%=      5-min Rain = 0
KVA1 081345Z 02006KT 05/03 A3041 RMK A01 T00500027  RH  085%=      5-min Rain = 0
KVA1 081346Z 02007KT 05/03 A3041 RMK A01 T00500026  RH  085%=      5-min Rain = 0
KVA1 081347Z 02007KT 05/03 A3041 RMK A01 T00500027  RH  085%=      5-min Rain = 0
KVA1 081348Z 01008KT 05/03 A3041 RMK A01 T00500026  RH  085%=      5-min Rain = 0
KVA1 081349Z 01007KT 05/03 A3041 RMK A01 T00500027  RH  085%=      5-min Rain = 0
KVA1 081350Z 02005KT 05/03 A3041 RMK A01 T00500027  RH  085%=      5-min Rain = 0
KVA1 081351Z 02006KT 05/03 A3041 RMK A01 T00500027  RH  085%=      5-min Rain = 0
KVA1 081352Z 02006KT 05/03 A3041 RMK A01 T00500026  RH  085%=      5-min Rain = 0
KVA1 081353Z 03006KT 05/03 A3041 RMK A01 T00500027  RH  085%=      5-min Rain = 0
KVA1 081354Z 03006KT 05/03 A3041 RMK A01 T00500027  RH  085%=      5-min Rain = 0
KVA1 081355Z 01004KT 05/03 A3041 RMK A01 T00500027  RH  085%=      5-min Rain = 0
KVA1 081356Z 01005KT 05/03 A3041 RMK A01 T00510028  RH  085%=      5-min Rain = 0
KVA1 081357Z 01007KT 05/03 A3042 RMK A01 T00510027  RH  085%=      5-min Rain = 0
KVA1 081358Z 01006KT 05/03 A3042 RMK A01 T00510027  RH  085%=      5-min Rain = 0
KVA1 081359Z 02004KT 05/03 A3042 RMK A01 T00510027  RH  085%=      5-min Rain = 0
KVA1 081400Z 02004KT 05/03 A3042 RMK A01 T00510027  RH  085%=      5-min Rain = 0
KVA1 081401Z 01005KT 05/03 A3042 RMK A01 T00510027  RH  085%=      5-min Rain = 0
KVA1 081402Z 03004KT 05/03 A3042 RMK A01 T00510028  RH  085%=      5-min Rain = 0
KVA1 081403Z 03005KT 05/03 A3042 RMK A01 T00520028  RH  085%=      5-min Rain = 0
KVA1 081404Z 03004KT 05/03 A3042 RMK A01 T00520028  RH  084%=      5-min Rain = 0
KVA1 081405Z 03004KT 05/03 A3042 RMK A01 T00520028  RH  084%=      5-min Rain = 0
KVA1 081406Z 02005KT 05/03 A3042 RMK A01 T00520028  RH  084%=      5-min Rain = 0
KVA1 081407Z 03005KT 05/03 A3042 RMK A01 T00520028  RH  084%=      5-min Rain = 0
KVA1 081408Z 03005KT 05/03 A3042 RMK A01 T00530028  RH  084%=      5-min Rain = 0
KVA1 081409Z 02004KT 05/03 A3042 RMK A01 T00530028  RH  084%=      5-min Rain = 0
KVA1 081410Z 02005KT 05/03 A3042 RMK A01 T00530028  RH  084%=      5-min Rain = 0
KVA1 081411Z 03004KT 05/03 A3042 RMK A01 T00530028  RH  084%=      5-min Rain = 0
KVA1 081412Z 03006KT 05/03 A3042 RMK A01 T00530028  RH  084%=      5-min Rain = 0
KVA1 081413Z 03005KT 05/03 A3042 RMK A01 T00530028  RH  084%=      5-min Rain = 0
KVA1 081414Z 05006KT 05/03 A3042 RMK A01 T00530028  RH  084%=      5-min Rain = 0
KVA1 081415Z 04006KT 05/03 A3042 RMK A01 T00530028  RH  084%=      5-min Rain = 0
KVA1 081416Z 02004KT 05/03 A3042 RMK A01 T00530028  RH  084%=      5-min Rain = 0
KVA1 081417Z 02004KT 05/03 A3042 RMK A01 T00530028  RH  084%=      5-min Rain = 0
KVA1 081418Z 02005KT 05/03 A3042 RMK A01 T00530028  RH  084%=      5-min Rain = 0
KVA1 081419Z 02005KT 05/03 A3042 RMK A01 T00530028  RH  084%=      5-min Rain = 0
KVA1 081420Z 02005KT 05/03 A3042 RMK A01 T00530028  RH  084%=      5-min Rain = 0
KVA1 081421Z 02005KT 05/03 A3042 RMK A01 T00540028  RH  084%=      5-min Rain = 0
KVA1 081422Z 01005KT 05/03 A3042 RMK A01 T00540028  RH  084%=      5-min Rain = 0
KVA1 081423Z 03004KT 05/03 A3042 RMK A01 T00540028  RH  083%=      5-min Rain = 0
KVA1 081424Z 03005KT 05/03 A3042 RMK A01 T00540029  RH  084%=      5-min Rain = 0
KVA1 081425Z 03005KT 06/03 A3042 RMK A01 T00550029  RH  083%=      5-min Rain = 0
KVA1 081426Z 03005KT 06/03 A3042 RMK A01 T00550028  RH  083%=      5-min Rain = 0
KVA1 081427Z 02006KT 06/03 A3042 RMK A01 T00550029  RH  083%=      5-min Rain = 0
KVA1 081428Z 02006KT 06/03 A3042 RMK A01 T00550028  RH  083%=      5-min Rain = 0
KVA1 081429Z 02006KT 06/03 A3042 RMK A01 T00560029  RH  083%=      5-min Rain = 0
KVA1 081430Z 02006KT 06/03 A3042 RMK A01 T00550029  RH  083%=      5-min Rain = 0
KVA1 081431Z 03004KT 06/03 A3042 RMK A01 T00550029  RH  083%=      5-min Rain = 0
KVA1 081432Z 02005KT 06/03 A3042 RMK A01 T00550028  RH  083%=      5-min Rain = 0
KVA1 081433Z 01005KT 06/03 A3042 RMK A01 T00550029  RH  083%=      5-min Rain = 0
KVA1 081434Z 00004KT 06/03 A3042 RMK A01 T00550029  RH  083%=      5-min Rain = 0
KVA1 081435Z 01004KT 06/03 A3042 RMK A01 T00560030  RH  083%=      5-min Rain = 0
KVA1 081436Z 03005KT 06/03 A3042 RMK A01 T00570030  RH  083%=      5-min Rain = 0
KVA1 081437Z 04005KT 06/03 A3042 RMK A01 T00570029  RH  082%=      5-min Rain = 0
KVA1 081438Z 04004KT 06/03 A3042 RMK A01 T00570029  RH  082%=      5-min Rain = 0
KVA1 081439Z 02005KT 06/03 A3042 RMK A01 T00570030  RH  082%=      5-min Rain = 0
KVA1 081440Z 03005KT 06/03 A3042 RMK A01 T00580030  RH  082%=      5-min Rain = 0
KVA1 081441Z 02005KT 06/03 A3042 RMK A01 T00580029  RH  082%=      5-min Rain = 0
KVA1 081442Z 01006KT 06/03 A3042 RMK A01 T00580029  RH  082%=      5-min Rain = 0
KVA1 081443Z 01004KT 06/03 A3042 RMK A01 T00580030  RH  082%=      5-min Rain = 0
KVA1 081444Z 03006KT 06/03 A3042 RMK A01 T00570030  RH  082%=      5-min Rain = 0
KVA1 081445Z 02006KT 06/03 A3042 RMK A01 T00580029  RH  082%=      5-min Rain = 0
KVA1 081446Z 03005KT 06/03 A3042 RMK A01 T00580029  RH  082%=      5-min Rain = 0
KVA1 081447Z 03005KT 06/03 A3042 RMK A01 T00580029  RH  082%=      5-min Rain = 0
KVA1 081448Z 03005KT 06/03 A3042 RMK A01 T00580029  RH  082%=      5-min Rain = 0
KVA1 081449Z 04006KT 06/03 A3042 RMK A01 T00580030  RH  082%=      5-min Rain = 0
KVA1 081450Z 03006KT 06/03 A3042 RMK A01 T00580029  RH  082%=      5-min Rain = 0
KVA1 081451Z 03005KT 06/03 A3042 RMK A01 T00580030  RH  082%=      5-min Rain = 0
KVA1 081452Z 02005KT 06/03 A3042 RMK A01 T00580030  RH  082%=      5-min Rain = 0
KVA1 081453Z 02004KT 06/03 A3042 RMK A01 T00580030  RH  082%=      5-min Rain = 0
KVA1 081454Z 02004KT 06/03 A3042 RMK A01 T00580030  RH  082%=      5-min Rain = 0
KVA1 081455Z 04004KT 06/03 A3042 RMK A01 T00580031  RH  082%=      5-min Rain = 0
KVA1 081456Z 05005KT 06/03 A3042 RMK A01 T00590031  RH  082%=      5-min Rain = 0
KVA1 081457Z 03004KT 06/03 A3042 RMK A01 T00590030  RH  081%=      5-min Rain = 0
KVA1 081458Z 03005KT 06/03 A3042 RMK A01 T00590030  RH  082%=      5-min Rain = 0
KVA1 081459Z 02005KT 06/03 A3042 RMK A01 T00590030  RH  082%=      5-min Rain = 0
KVA1 081500Z 04004KT 06/03 A3042 RMK A01 T00590029  RH  082%=      5-min Rain = 0
KVA1 081501Z 04004KT 06/03 A3042 RMK A01 T00590030  RH  082%=      5-min Rain = 0
KVA1 081502Z 05003KT 06/03 A3042 RMK A01 T00590029  RH  081%=      5-min Rain = 0
KVA1 081503Z 04003KT 06/03 A3042 RMK A01 T00590029  RH  081%=      5-min Rain = 0
KVA1 081504Z 03004KT 06/03 A3042 RMK A01 T00580030  RH  082%=      5-min Rain = 0
KVA1 081505Z 03004KT 06/03 A3042 RMK A01 T00580030  RH  082%=      5-min Rain = 0
KVA1 081506Z 02005KT 06/03 A3042 RMK A01 T00590030  RH  082%=      5-min Rain = 0
KVA1 081507Z 03005KT 06/03 A3042 RMK A01 T00590030  RH  081%=      5-min Rain = 0
KVA1 081508Z 02005KT 06/03 A3042 RMK A01 T00590030  RH  081%=      5-min Rain = 0
KVA1 081509Z 02004KT 06/03 A3042 RMK A01 T00590030  RH  081%=      5-min Rain = 0
KVA1 081510Z 02005KT 06/03 A3042 RMK A01 T00590030  RH  082%=      5-min Rain = 0
KVA1 081511Z 02005KT 06/03 A3042 RMK A01 T00590030  RH  082%=      5-min Rain = 0
KVA1 081512Z 03004KT 06/03 A3042 RMK A01 T00600030  RH  081%=      5-min Rain = 0
KVA1 081513Z 02005KT 06/03 A3042 RMK A01 T00600030  RH  081%=      5-min Rain = 0
KVA1 081514Z 03005KT 06/03 A3042 RMK A01 T00600030  RH  081%=      5-min Rain = 0
KVA1 081515Z 03005KT 06/03 A3042 RMK A01 T00600031  RH  082%=      5-min Rain = 0
KVA1 081516Z 04005KT 06/03 A3042 RMK A01 T00600030  RH  081%=      5-min Rain = 0
KVA1 081517Z 05005KT 06/03 A3042 RMK A01 T00600031  RH  081%=      5-min Rain = 0
KVA1 081518Z 02003KT 06/03 A3042 RMK A01 T00600030  RH  081%=      5-min Rain = 0
KVA1 081519Z 01004KT 06/03 A3042 RMK A01 T00600031  RH  082%=      5-min Rain = 0
KVA1 081520Z 01003KT 06/03 A3042 RMK A01 T00600031  RH  081%=      5-min Rain = 0
KVA1 081521Z 03005KT 06/03 A3042 RMK A01 T00610032  RH  081%=      5-min Rain = 0
KVA1 081522Z 03005KT 06/03 A3042 RMK A01 T00620031  RH  081%=      5-min Rain = 0
KVA1 081523Z 04004KT 06/03 A3042 RMK A01 T00610030  RH  081%=      5-min Rain = 0
KVA1 081524Z 04003KT 06/03 A3042 RMK A01 T00610031  RH  081%=      5-min Rain = 0
KVA1 081525Z 02004KT 06/03 A3042 RMK A01 T00600030  RH  081%=      5-min Rain = 0
KVA1 081526Z 03003KT 06/03 A3042 RMK A01 T00600031  RH  082%=      5-min Rain = 0
KVA1 081527Z 02004KT 06/03 A3042 RMK A01 T00610032  RH  082%=      5-min Rain = 0
KVA1 081528Z 04004KT 06/03 A3042 RMK A01 T00620033  RH  082%=      5-min Rain = 0
KVA1 081529Z 03004KT 06/03 A3042 RMK A01 T00630032  RH  081%=      5-min Rain = 0
KVA1 081530Z 03003KT 06/03 A3042 RMK A01 T00620031  RH  081%=      5-min Rain = 0
KVA1 081531Z 03004KT 06/03 A3042 RMK A01 T00620032  RH  081%=      5-min Rain = 0
KVA1 081532Z 03005KT 06/03 A3042 RMK A01 T00620032  RH  081%=      5-min Rain = 0
KVA1 081533Z 03005KT 06/03 A3042 RMK A01 T00630031  RH  081%=      5-min Rain = 0
KVA1 081534Z 07004KT 06/03 A3042 RMK A01 T00630032  RH  081%=      5-min Rain = 0
KVA1 081535Z 07003KT 06/03 A3042 RMK A01 T00630031  RH  080%=      5-min Rain = 0
KVA1 081536Z 08003KT 06/03 A3042 RMK A01 T00620032  RH  081%=      5-min Rain = 0
KVA1 081537Z 05003KT 06/03 A3042 RMK A01 T00630032  RH  081%=      5-min Rain = 0
KVA1 081538Z 04004KT 06/03 A3042 RMK A01 T00630032  RH  081%=      5-min Rain = 0
KVA1 081539Z 05004KT 06/03 A3042 RMK A01 T00630032  RH  080%=      5-min Rain = 0
KVA1 081540Z 04004KT 06/03 A3042 RMK A01 T00630032  RH  080%=      5-min Rain = 0
KVA1 081541Z 04004KT 06/03 A3042 RMK A01 T00640032  RH  080%=      5-min Rain = 0
KVA1 081542Z 04002KT 06/03 A3042 RMK A01 T00630032  RH  081%=      5-min Rain = 0
KVA1 081543Z 03003KT 06/03 A3042 RMK A01 T00640032  RH  080%=      5-min Rain = 0
KVA1 081544Z 03003KT 06/03 A3042 RMK A01 T00640033  RH  080%=      5-min Rain = 0
KVA1 081545Z 05004KT 07/03 A3042 RMK A01 T00650033  RH  080%=      5-min Rain = 0
KVA1 081546Z 05003KT 07/03 A3042 RMK A01 T00650033  RH  080%=      5-min Rain = 0
KVA1 081547Z 06002KT 07/03 A3042 RMK A01 T00660033  RH  079%=      5-min Rain = 0
KVA1 081548Z 07002KT 07/03 A3042 RMK A01 T00660034  RH  080%=      5-min Rain = 0
KVA1 081549Z 05004KT 07/03 A3042 RMK A01 T00670033  RH  079%=      5-min Rain = 0
KVA1 081550Z 06004KT 07/03 A3042 RMK A01 T00660032  RH  079%=      5-min Rain = 0
KVA1 081551Z 04004KT 07/03 A3042 RMK A01 T00660032  RH  079%=      5-min Rain = 0
KVA1 081552Z 05002KT 07/03 A3042 RMK A01 T00660032  RH  079%=      5-min Rain = 0
KVA1 081553Z 05002KT 07/03 A3042 RMK A01 T00650032  RH  079%=      5-min Rain = 0
KVA1 081554Z 02002KT 07/03 A3042 RMK A01 T00650033  RH  080%=      5-min Rain = 0
KVA1 081555Z 03003KT 07/03 A3042 RMK A01 T00660033  RH  080%=      5-min Rain = 0
KVA1 081556Z 04003KT 07/03 A3042 RMK A01 T00670033  RH  079%=      5-min Rain = 0
KVA1 081557Z 02002KT 07/03 A3042 RMK A01 T00670033  RH  079%=      5-min Rain = 0
KVA1 081558Z 03002KT 07/03 A3042 RMK A01 T00670033  RH  079%=      5-min Rain = 0
KVA1 081559Z 04002KT 07/03 A3042 RMK A01 T00670033  RH  079%=      5-min Rain = 0
KVA1 081600Z 03003KT 07/03 A3042 RMK A01 T00670032  RH  078%=      5-min Rain = 0
KVA1 081601Z 04004KT 07/03 A3042 RMK A01 T00680033  RH  079%=      5-min Rain = 0
KVA1 081602Z 05004KT 07/03 A3042 RMK A01 T00680033  RH  079%=      5-min Rain = 0
KVA1 081603Z 04004KT 07/03 A3042 RMK A01 T00690034  RH  079%=      5-min Rain = 0
KVA1 081604Z 01003KT 07/03 A3042 RMK A01 T00690034  RH  078%=      5-min Rain = 0
KVA1 081605Z 05003KT 07/04 A3042 RMK A01 T00700035  RH  078%=      5-min Rain = 0
KVA1 081606Z 05004KT 07/03 A3042 RMK A01 T00700034  RH  077%=      5-min Rain = 0
KVA1 081607Z 03004KT 07/03 A3042 RMK A01 T00700033  RH  077%=      5-min Rain = 0
KVA1 081608Z 02004KT 07/03 A3042 RMK A01 T00690034  RH  078%=      5-min Rain = 0
KVA1 081609Z 01003KT 07/03 A3042 RMK A01 T00690034  RH  078%=      5-min Rain = 0
KVA1 081610Z 04003KT 07/03 A3041 RMK A01 T00700034  RH  078%=      5-min Rain = 0
KVA1 081611Z 06003KT 07/03 A3041 RMK A01 T00700034  RH  078%=      5-min Rain = 0
KVA1 081612Z 05004KT 07/03 A3041 RMK A01 T00700034  RH  078%=      5-min Rain = 0
KVA1 081613Z 04004KT 07/03 A3041 RMK A01 T00700034  RH  078%=      5-min Rain = 0
KVA1 081614Z 04003KT 07/03 A3041 RMK A01 T00710034  RH  077%=      5-min Rain = 0
KVA1 081615Z 04003KT 07/03 A3041 RMK A01 T00710034  RH  078%=      5-min Rain = 0
KVA1 081616Z 02002KT 07/03 A3041 RMK A01 T00710034  RH  077%=      5-min Rain = 0
KVA1 081617Z 02003KT 07/04 A3041 RMK A01 T00710035  RH  078%=      5-min Rain = 0
KVA1 081618Z 02001KT 07/03 A3041 RMK A01 T00710034  RH  077%=      5-min Rain = 0
KVA1 081619Z 04002KT 07/03 A3041 RMK A01 T00710034  RH  077%=      5-min Rain = 0
KVA1 081620Z 05003KT 07/04 A3041 RMK A01 T00710035  RH  077%=      5-min Rain = 0
KVA1 081621Z 03003KT 07/04 A3041 RMK A01 T00720035  RH  077%=      5-min Rain = 0
KVA1 081622Z 04002KT 07/04 A3041 RMK A01 T00730035  RH  077%=      5-min Rain = 0
KVA1 081623Z 04003KT 07/04 A3041 RMK A01 T00730035  RH  077%=      5-min Rain = 0
KVA1 081624Z 05004KT 07/04 A3041 RMK A01 T00740035  RH  076%=      5-min Rain = 0
KVA1 081625Z 05004KT 07/04 A3041 RMK A01 T00740035  RH  076%=      5-min Rain = 0
KVA1 081626Z 03002KT 07/04 A3041 RMK A01 T00740035  RH  076%=      5-min Rain = 0
KVA1 081627Z 03002KT 07/03 A3041 RMK A01 T00730034  RH  076%=      5-min Rain = 0
KVA1 081628Z 07002KT 07/04 A3041 RMK A01 T00730035  RH  077%=      5-min Rain = 0
KVA1 081629Z 06002KT 07/04 A3041 RMK A01 T00740036  RH  077%=      5-min Rain = 0
KVA1 081630Z 07003KT 08/04 A3041 RMK A01 T00750035  RH  076%=      5-min Rain = 0
KVA1 081631Z 05004KT 08/04 A3041 RMK A01 T00750035  RH  076%=      5-min Rain = 0
KVA1 081632Z 06004KT 08/04 A3041 RMK A01 T00750035  RH  076%=      5-min Rain = 0
KVA1 081633Z 07003KT 08/04 A3041 RMK A01 T00750035  RH  075%=      5-min Rain = 0
KVA1 081634Z 07002KT 07/03 A3041 RMK A01 T00740034  RH  076%=      5-min Rain = 0
KVA1 081635Z 07002KT 07/03 A3041 RMK A01 T00730034  RH  076%=      5-min Rain = 0
KVA1 081636Z 08002KT 07/04 A3041 RMK A01 T00730035  RH  077%=      5-min Rain = 0
KVA1 081637Z 08002KT 07/04 A3041 RMK A01 T00730035  RH  077%=      5-min Rain = 0
KVA1 081638Z 09002KT 07/04 A3041 RMK A01 T00740035  RH  076%=      5-min Rain = 0
KVA1 081639Z 10002KT 07/04 A3041 RMK A01 T00740035  RH  076%=      5-min Rain = 0
KVA1 081640Z 07003KT 07/04 A3041 RMK A01 T00740035  RH  076%=      5-min Rain = 0
KVA1 081641Z 07002KT 07/04 A3041 RMK A01 T00740035  RH  076%=      5-min Rain = 0
KVA1 081642Z 07002KT 07/04 A3041 RMK A01 T00740035  RH  076%=      5-min Rain = 0
KVA1 081643Z 06000KT 07/04 A3041 RMK A01 T00740035  RH  076%=      5-min Rain = 0
KVA1 081644Z 05001KT 08/04 A3041 RMK A01 T00750036  RH  076%=      5-min Rain = 0
KVA1 081645Z 05003KT 08/04 A3041 RMK A01 T00760036  RH  076%=      5-min Rain = 0
KVA1 081646Z 04002KT 08/04 A3041 RMK A01 T00760036  RH  075%=      5-min Rain = 0
KVA1 081647Z 05002KT 08/04 A3041 RMK A01 T00770036  RH  075%=      5-min Rain = 0
KVA1 081648Z 06002KT 08/04 A3041 RMK A01 T00770036  RH  075%=      5-min Rain = 0
KVA1 081649Z 07002KT 08/04 A3041 RMK A01 T00770036  RH  075%=      5-min Rain = 0
KVA1 081650Z 08002KT 08/04 A3041 RMK A01 T00780037  RH  075%=      5-min Rain = 0
KVA1 081651Z 08001KT 08/04 A3041 RMK A01 T00780036  RH  075%=      5-min Rain = 0
KVA1 081652Z 05001KT 08/04 A3041 RMK A01 T00780036  RH  075%=      5-min Rain = 0
KVA1 081653Z 04000KT 08/04 A3041 RMK A01 T00780036  RH  075%=      5-min Rain = 0
KVA1 081654Z 06002KT 08/04 A3041 RMK A01 T00780036  RH  075%=      5-min Rain = 0
KVA1 081655Z 06002KT 08/04 A3041 RMK A01 T00780036  RH  075%=      5-min Rain = 0
KVA1 081656Z 07002KT 08/04 A3041 RMK A01 T00790036  RH  074%=      5-min Rain = 0
KVA1 081657Z 08002KT 08/04 A3041 RMK A01 T00780036  RH  075%=      5-min Rain = 0
KVA1 081658Z 11002KT 08/04 A3041 RMK A01 T00780036  RH  075%=      5-min Rain = 0
KVA1 081659Z 11001KT 08/04 A3041 RMK A01 T00780036  RH  075%=      5-min Rain = 0
KVA1 081700Z 07001KT 08/04 A3041 RMK A01 T00780036  RH  075%=      5-min Rain = 0
KVA1 081701Z 08000KT 08/04 A3041 RMK A01 T00780036  RH  075%=      5-min Rain = 0
KVA1 081702Z 08000KT 08/04 A3041 RMK A01 T00780036  RH  075%=      5-min Rain = 0
KVA1 081703Z 06000KT 08/04 A3041 RMK A01 T00790037  RH  075%=      5-min Rain = 0
KVA1 081704Z 08002KT 08/04 A3041 RMK A01 T00800037  RH  074%=      5-min Rain = 0
KVA1 081705Z 07002KT 08/04 A3041 RMK A01 T00820038  RH  074%=      5-min Rain = 0
KVA1 081706Z 05002KT 08/04 A3041 RMK A01 T00810037  RH  073%=      5-min Rain = 0
KVA1 081707Z 07001KT 08/04 A3041 RMK A01 T00820037  RH  073%=      5-min Rain = 0
KVA1 081708Z 09002KT 08/04 A3041 RMK A01 T00810037  RH  073%=      5-min Rain = 0
KVA1 081709Z 09001KT 08/04 A3041 RMK A01 T00820037  RH  074%=      5-min Rain = 0
KVA1 081710Z 13000KT 08/04 A3041 RMK A01 T00820037  RH  073%=      5-min Rain = 0
KVA1 081711Z 15001KT 08/04 A3041 RMK A01 T00820037  RH  073%=      5-min Rain = 0
KVA1 081712Z 14000KT 08/04 A3041 RMK A01 T00820037  RH  073%=      5-min Rain = 0
KVA1 081713Z 16001KT 08/04 A3041 RMK A01 T00820036  RH  073%=      5-min Rain = 0
KVA1 081714Z 21000KT 08/04 A3041 RMK A01 T00820036  RH  073%=      5-min Rain = 0
KVA1 081715Z 28000KT 08/04 A3041 RMK A01 T00830037  RH  073%=      5-min Rain = 0
KVA1 081716Z 09000KT 08/04 A3041 RMK A01 T00830037  RH  072%=      5-min Rain = 0
KVA1 081717Z 10000KT 08/04 A3041 RMK A01 T00830036  RH  072%=      5-min Rain = 0
KVA1 081718Z 15000KT 08/04 A3041 RMK A01 T00840037  RH  072%=      5-min Rain = 0
KVA1 081719Z 16000KT 09/04 A3041 RMK A01 T00850038  RH  072%=      5-min Rain = 0
KVA1 081720Z 08000KT 09/04 A3041 RMK A01 T00860038  RH  072%=      5-min Rain = 0
KVA1 081721Z 09000KT 09/04 A3041 RMK A01 T00860038  RH  071%=      5-min Rain = 0
KVA1 081722Z 18000KT 09/04 A3041 RMK A01 T00870038  RH  072%=      5-min Rain = 0
KVA1 081723Z 18001KT 09/04 A3041 RMK A01 T00870038  RH  071%=      5-min Rain = 0
KVA1 081724Z 11002KT 09/04 A3041 RMK A01 T00880039  RH  071%=      5-min Rain = 0
KVA1 081725Z 10003KT 09/04 A3041 RMK A01 T00890038  RH  071%=      5-min Rain = 0
KVA1 081726Z 10003KT 09/04 A3041 RMK A01 T00870037  RH  071%=      5-min Rain = 0
KVA1 081727Z 10003KT 09/04 A3041 RMK A01 T00870038  RH  072%=      5-min Rain = 0
KVA1 081728Z 09002KT 09/04 A3041 RMK A01 T00860039  RH  072%=      5-min Rain = 0
KVA1 081729Z 08001KT 09/04 A3041 RMK A01 T00860038  RH  072%=      5-min Rain = 0
KVA1 081730Z 12001KT 09/04 A3041 RMK A01 T00860038  RH  072%=      5-min Rain = 0
KVA1 081731Z 14001KT 09/04 A3041 RMK A01 T00860038  RH  072%=      5-min Rain = 0
KVA1 081732Z 14002KT 09/04 A3041 RMK A01 T00860038  RH  072%=      5-min Rain = 0
KVA1 081733Z 13002KT 09/04 A3041 RMK A01 T00860038  RH  072%=      5-min Rain = 0
KVA1 081734Z 14002KT 09/04 A3041 RMK A01 T00860038  RH  072%=      5-min Rain = 0
KVA1 081735Z 14001KT 09/04 A3041 RMK A01 T00870039  RH  072%=      5-min Rain = 0
KVA1 081736Z 11000KT 09/04 A3041 RMK A01 T00870039  RH  072%=      5-min Rain = 0
KVA1 081737Z 18001KT 09/04 A3041 RMK A01 T00870038  RH  071%=      5-min Rain = 0
KVA1 081738Z 17001KT 09/04 A304 RMK A01 T00880039  RH  071%=      5-min Rain = 0
KVA1 081739Z 13001KT 09/04 A304 RMK A01 T00890039  RH  071%=      5-min Rain = 0
KVA1 081740Z 15002KT 09/04 A304 RMK A01 T00890040  RH  071%=      5-min Rain = 0
KVA1 081741Z 16002KT 09/04 A304 RMK A01 T00900039  RH  071%=      5-min Rain = 0
KVA1 081742Z 15002KT 09/04 A304 RMK A01 T00900039  RH  070%=      5-min Rain = 0
KVA1 081743Z 15002KT 09/04 A304 RMK A01 T00900039  RH  070%=      5-min Rain = 0
KVA1 081744Z 16001KT 09/04 A304 RMK A01 T00900039  RH  070%=      5-min Rain = 0
KVA1 081745Z 18000KT 09/04 A304 RMK A01 T00910040  RH  070%=      5-min Rain = 0
KVA1 081746Z 17001KT 09/04 A304 RMK A01 T00920041  RH  070%=      5-min Rain = 0
KVA1 081747Z 16002KT 09/04 A304 RMK A01 T00930041  RH  070%=      5-min Rain = 0
KVA1 081748Z 15002KT 10/04 A304 RMK A01 T00950042  RH  070%=      5-min Rain = 0
KVA1 081749Z 15002KT 10/04 A304 RMK A01 T00950040  RH  069%=      5-min Rain = 0
KVA1 081750Z 15003KT 10/04 A304 RMK A01 T00950040  RH  069%=      5-min Rain = 0
KVA1 081751Z 18002KT 09/04 A304 RMK A01 T00940040  RH  069%=      5-min Rain = 0
KVA1 081752Z 13002KT 09/04 A304 RMK A01 T00920039  RH  069%=      5-min Rain = 0
KVA1 081753Z 13001KT 09/04 A304 RMK A01 T00920040  RH  070%=      5-min Rain = 0
KVA1 081754Z 13001KT 09/04 A304 RMK A01 T00920039  RH  070%=      5-min Rain = 0
KVA1 081755Z 16000KT 09/04 A304 RMK A01 T00920041  RH  070%=      5-min Rain = 0
KVA1 081756Z 19001KT 09/04 A304 RMK A01 T00940042  RH  070%=      5-min Rain = 0
KVA1 081757Z 20000KT 10/04 A304 RMK A01 T00950040  RH  069%=      5-min Rain = 0
KVA1 081758Z 15000KT 09/04 A304 RMK A01 T00940040  RH  069%=      5-min Rain = 0
KVA1 081759Z 00000KT 09/04 A304 RMK A01 T00940039  RH  069%=      5-min Rain = 0
KVA1 081800Z 15001KT 09/04 A304 RMK A01 T00940040  RH  069%=      5-min Rain = 0
KVA1 081801Z 12002KT 10/04 A3039 RMK A01 T00950040  RH  069%=      5-min Rain = 0
KVA1 081802Z 11001KT 10/04 A3039 RMK A01 T00950040  RH  069%=      5-min Rain = 0
KVA1 081803Z 10000KT 09/04 A3039 RMK A01 T00940040  RH  069%=      5-min Rain = 0
KVA1 081804Z 02000KT 09/04 A3039 RMK A01 T00940040  RH  069%=      5-min Rain = 0
KVA1 081805Z 35001KT 09/04 A3039 RMK A01 T00940041  RH  069%=      5-min Rain = 0
KVA1 081806Z 32001KT 09/04 A3039 RMK A01 T00940041  RH  069%=      5-min Rain = 0
KVA1 081807Z 33001KT 09/04 A3039 RMK A01 T00940041  RH  069%=      5-min Rain = 0
KVA1 081808Z 32001KT 10/04 A3039 RMK A01 T00950041  RH  069%=      5-min Rain = 0
KVA1 081809Z 29000KT 10/04 A3039 RMK A01 T00950041  RH  069%=      5-min Rain = 0
KVA1 081810Z 36000KT 10/04 A3039 RMK A01 T00960042  RH  069%=      5-min Rain = 0
KVA1 081816Z 12002KT 10/04 A3039 RMK A01 T01000043  RH  068%=      5-min Rain = 0
KVA1 081817Z 09002KT 10/04 A3039 RMK A01 T01000043  RH  067%=      5-min Rain = 0
KVA1 081818Z 11001KT 10/04 A3039 RMK A01 T01000042  RH  067%=      5-min Rain = 0
KVA1 081819Z 10002KT 10/04 A3039 RMK A01 T00990042  RH  068%=      5-min Rain = 0
KVA1 081820Z 12001KT 10/04 A3039 RMK A01 T00970042  RH  068%=      5-min Rain = 0
KVA1 081821Z 05001KT 10/04 A3039 RMK A01 T00970043  RH  069%=      5-min Rain = 0
KVA1 081822Z 31001KT 10/04 A3039 RMK A01 T00970042  RH  068%=      5-min Rain = 0
KVA1 081823Z 31001KT 10/04 A3039 RMK A01 T00970041  RH  068%=      5-min Rain = 0
KVA1 081824Z 00000KT 10/04 A3039 RMK A01 T00970042  RH  069%=      5-min Rain = 0
KVA1 081825Z 21000KT 10/04 A3039 RMK A01 T00970041  RH  068%=      5-min Rain = 0
KVA1 081826Z 23000KT 10/04 A3039 RMK A01 T00970042  RH  069%=      5-min Rain = 0
KVA1 081827Z 23001KT 10/04 A3039 RMK A01 T00980043  RH  068%=      5-min Rain = 0
KVA1 081828Z 24000KT 10/04 A3039 RMK A01 T00990042  RH  068%=      5-min Rain = 0
KVA1 081829Z 27000KT 10/04 A3039 RMK A01 T00980041  RH  068%=      5-min Rain = 0
KVA1 081830Z 26001KT 10/04 A3039 RMK A01 T00980042  RH  068%=      5-min Rain = 0
KVA1 081831Z 26000KT 10/04 A3039 RMK A01 T00990042  RH  068%=      5-min Rain = 0
KVA1 081832Z 00000KT 10/04 A3039 RMK A01 T01000042  RH  068%=      5-min Rain = 0
KVA1 081833Z 00000KT 10/04 A3039 RMK A01 T00990042  RH  068%=      5-min Rain = 0
KVA1 081834Z 19000KT 10/04 A3039 RMK A01 T01000042  RH  067%=      5-min Rain = 0
KVA1 081835Z 19001KT 10/04 A3039 RMK A01 T01000042  RH  068%=      5-min Rain = 0
KVA1 081836Z 19001KT 10/04 A3039 RMK A01 T01000043  RH  067%=      5-min Rain = 0
KVA1 081837Z 20002KT 10/04 A3039 RMK A01 T01000042  RH  067%=      5-min Rain = 0
KVA1 081838Z 18001KT 10/04 A3039 RMK A01 T01000043  RH  068%=      5-min Rain = 0
KVA1 081839Z 23000KT 10/04 A3039 RMK A01 T00990042  RH  068%=      5-min Rain = 0
KVA1 081840Z 19001KT 10/04 A3039 RMK A01 T01000043  RH  068%=      5-min Rain = 0
KVA1 081841Z 14001KT 10/04 A3039 RMK A01 T01020044  RH  067%=      5-min Rain = 0
KVA1 081842Z 17002KT 10/04 A3039 RMK A01 T01030044  RH  067%=      5-min Rain = 0
KVA1 081843Z 18002KT 10/04 A3038 RMK A01 T01030043  RH  066%=      5-min Rain = 0
KVA1 081844Z 20002KT 10/04 A3038 RMK A01 T01040043  RH  066%=      5-min Rain = 0
KVA1 081845Z 18002KT 10/04 A3038 RMK A01 T01030042  RH  066%=      5-min Rain = 0
KVA1 081846Z 17002KT 10/04 A3038 RMK A01 T01020043  RH  067%=      5-min Rain = 0
KVA1 081847Z 17001KT 10/04 A3038 RMK A01 T01010042  RH  067%=      5-min Rain = 0
KVA1 081848Z 21002KT 10/04 A3038 RMK A01 T01010042  RH  067%=      5-min Rain = 0
KVA1 081849Z 20002KT 10/04 A3038 RMK A01 T01010042  RH  067%=      5-min Rain = 0
KVA1 081850Z 17002KT 10/04 A3038 RMK A01 T01010043  RH  067%=      5-min Rain = 0
KVA1 081851Z 16003KT 10/04 A3038 RMK A01 T01010043  RH  067%=      5-min Rain = 0
KVA1 081852Z 16003KT 10/04 A3038 RMK A01 T01020044  RH  067%=      5-min Rain = 0
KVA1 081853Z 17002KT 10/04 A3038 RMK A01 T01020043  RH  067%=      5-min Rain = 0
KVA1 081854Z 20001KT 10/04 A3038 RMK A01 T01020044  RH  067%=      5-min Rain = 0
KVA1 081855Z 20001KT 10/04 A3038 RMK A01 T01020043  RH  067%=      5-min Rain = 0
KVA1 081856Z 20001KT 10/04 A3038 RMK A01 T01010043  RH  067%=      5-min Rain = 0
KVA1 081857Z 23001KT 10/04 A3038 RMK A01 T01000043  RH  067%=      5-min Rain = 0
KVA1 081858Z 24001KT 10/04 A3038 RMK A01 T01000043  RH  068%=      5-min Rain = 0
KVA1 081859Z 22002KT 10/04 A3037 RMK A01 T01010044  RH  068%=      5-min Rain = 0
KVA1 081900Z 23002KT 10/04 A3037 RMK A01 T01020044  RH  067%=      5-min Rain = 0
KVA1 081901Z 25002KT 10/04 A3037 RMK A01 T01020044  RH  067%=      5-min Rain = 0
KVA1 081902Z 29002KT 10/04 A3037 RMK A01 T01020044  RH  067%=      5-min Rain = 0
KVA1 081903Z 28001KT 10/04 A3037 RMK A01 T01020043  RH  067%=      5-min Rain = 0
KVA1 081904Z 20001KT 10/04 A3037 RMK A01 T01020044  RH  067%=      5-min Rain = 0
KVA1 081905Z 16002KT 10/04 A3037 RMK A01 T01030044  RH  067%=      5-min Rain = 0
KVA1 081906Z 15002KT 10/05 A3037 RMK A01 T01030045  RH  067%=      5-min Rain = 0
KVA1 081907Z 15003KT 10/04 A3037 RMK A01 T01030044  RH  067%=      5-min Rain = 0
KVA1 081908Z 13003KT 10/04 A3037 RMK A01 T01040044  RH  067%=      5-min Rain = 0
KVA1 081909Z 15002KT 10/05 A3037 RMK A01 T01040045  RH  067%=      5-min Rain = 0
KVA1 081910Z 14002KT 10/05 A3037 RMK A01 T01040046  RH  067%=      5-min Rain = 0
KVA1 081911Z 19002KT 11/05 A3037 RMK A01 T01050045  RH  066%=      5-min Rain = 0
KVA1 081912Z 19002KT 11/04 A3037 RMK A01 T01050044  RH  066%=      5-min Rain = 0
KVA1 081913Z 15001KT 10/05 A3037 RMK A01 T01030045  RH  067%=      5-min Rain = 0
KVA1 081914Z 17003KT 10/05 A3036 RMK A01 T01030045  RH  067%=      5-min Rain = 0
KVA1 081915Z 17003KT 10/05 A3036 RMK A01 T01040046  RH  067%=      5-min Rain = 0
KVA1 081916Z 16004KT 11/05 A3036 RMK A01 T01050047  RH  067%=      5-min Rain = 0
KVA1 081917Z 15003KT 11/05 A3036 RMK A01 T01050046  RH  067%=      5-min Rain = 0
KVA1 081918Z 16002KT 11/05 A3036 RMK A01 T01050047  RH  067%=      5-min Rain = 0
KVA1 081919Z 18003KT 11/05 A3036 RMK A01 T01050047  RH  067%=      5-min Rain = 0
KVA1 081920Z 16002KT 10/05 A3036 RMK A01 T01040047  RH  067%=      5-min Rain = 0
KVA1 081921Z 14003KT 10/05 A3036 RMK A01 T01030046  RH  068%=      5-min Rain = 0
KVA1 081922Z 12002KT 10/05 A3036 RMK A01 T01030046  RH  068%=      5-min Rain = 0
KVA1 081923Z 14002KT 10/05 A3036 RMK A01 T01030046  RH  068%=      5-min Rain = 0
KVA1 081924Z 17004KT 10/05 A3036 RMK A01 T01030047  RH  068%=      5-min Rain = 0
KVA1 081925Z 18004KT 10/05 A3036 RMK A01 T01030048  RH  068%=      5-min Rain = 0
KVA1 081926Z 20004KT 10/05 A3036 RMK A01 T01030047  RH  068%=      5-min Rain = 0
KVA1 081927Z 18003KT 10/05 A3036 RMK A01 T01030047  RH  068%=      5-min Rain = 0
KVA1 081928Z 14002KT 10/05 A3036 RMK A01 T01030047  RH  068%=      5-min Rain = 0
KVA1 081929Z 14002KT 10/05 A3036 RMK A01 T01040048  RH  068%=      5-min Rain = 0
KVA1 081930Z 16003KT 10/05 A3036 RMK A01 T01040048  RH  068%=      5-min Rain = 0
KVA1 081931Z 17003KT 10/05 A3036 RMK A01 T01040048  RH  069%=      5-min Rain = 0
KVA1 081932Z 21002KT 10/05 A3036 RMK A01 T01040049  RH  069%=      5-min Rain = 0
KVA1 081933Z 21003KT 10/05 A3036 RMK A01 T01040049  RH  069%=      5-min Rain = 0
KVA1 081934Z 21002KT 10/05 A3036 RMK A01 T01030048  RH  069%=      5-min Rain = 0
KVA1 081935Z 21002KT 10/05 A3036 RMK A01 T01030048  RH  069%=      5-min Rain = 0
KVA1 081936Z 23003KT 10/05 A3036 RMK A01 T01030049  RH  069%=      5-min Rain = 0
KVA1 081937Z 22004KT 10/05 A3036 RMK A01 T01030049  RH  069%=      5-min Rain = 0
KVA1 081938Z 19004KT 10/05 A3036 RMK A01 T01040050  RH  069%=      5-min Rain = 0
KVA1 081939Z 19003KT 11/05 A3036 RMK A01 T01050050  RH  069%=      5-min Rain = 0
KVA1 081940Z 20004KT 11/05 A3036 RMK A01 T01050050  RH  069%=      5-min Rain = 0
KVA1 081941Z 19004KT 10/05 A3036 RMK A01 T01040051  RH  070%=      5-min Rain = 0
KVA1 081942Z 18005KT 11/05 A3036 RMK A01 T01050052  RH  070%=      5-min Rain = 0
KVA1 081943Z 18005KT 10/05 A3036 RMK A01 T01040051  RH  070%=      5-min Rain = 0
KVA1 081944Z 17005KT 10/05 A3035 RMK A01 T01030051  RH  070%=      5-min Rain = 0
KVA1 081945Z 21004KT 10/05 A3035 RMK A01 T01030052  RH  070%=      5-min Rain = 0
KVA1 081946Z 22004KT 10/05 A3035 RMK A01 T01040052  RH  070%=      5-min Rain = 0
KVA1 081947Z 20003KT 11/05 A3035 RMK A01 T01050051  RH  069%=      5-min Rain = 0
KVA1 081948Z 21003KT 11/05 A3035 RMK A01 T01050051  RH  069%=      5-min Rain = 0
KVA1 081949Z 20003KT 10/05 A3035 RMK A01 T01040050  RH  069%=      5-min Rain = 0
KVA1 081950Z 21003KT 10/05 A3035 RMK A01 T01030050  RH  070%=      5-min Rain = 0
KVA1 081951Z 20005KT 10/05 A3035 RMK A01 T01020050  RH  070%=      5-min Rain = 0
KVA1 081952Z 20004KT 10/05 A3035 RMK A01 T01030051  RH  070%=      5-min Rain = 0
KVA1 081953Z 20003KT 10/05 A3035 RMK A01 T01040052  RH  070%=      5-min Rain = 0
KVA1 081954Z 18004KT 10/05 A3035 RMK A01 T01040052  RH  071%=      5-min Rain = 0
KVA1 081955Z 17003KT 10/05 A3035 RMK A01 T01040053  RH  071%=      5-min Rain = 0
KVA1 081956Z 17003KT 11/05 A3035 RMK A01 T01050053  RH  070%=      5-min Rain = 0
KVA1 081957Z 17002KT 11/05 A3035 RMK A01 T01050053  RH  070%=      5-min Rain = 0
KVA1 081958Z 18003KT 11/05 A3034 RMK A01 T01050053  RH  070%=      5-min Rain = 0
KVA1 081959Z 17003KT 11/05 A3034 RMK A01 T01050053  RH  070%=      5-min Rain = 0
KVA1 082000Z 18003KT 11/05 A3034 RMK A01 T01070053  RH  069%=      5-min Rain = 0
KVA1 082001Z 18002KT 11/05 A3034 RMK A01 T01070053  RH  069%=      5-min Rain = 0
KVA1 082002Z 21001KT 11/05 A3034 RMK A01 T01080054  RH  069%=      5-min Rain = 0
KVA1 082003Z 16003KT 11/05 A3034 RMK A01 T01080053  RH  069%=      5-min Rain = 0
KVA1 082004Z 17003KT 11/05 A3034 RMK A01 T01090053  RH  068%=      5-min Rain = 0
KVA1 082005Z 18003KT 11/05 A3034 RMK A01 T01100054  RH  068%=      5-min Rain = 0
KVA1 082006Z 17003KT 11/05 A3034 RMK A01 T01100053  RH  068%=      5-min Rain = 0
KVA1 082007Z 17003KT 11/05 A3034 RMK A01 T01090053  RH  068%=      5-min Rain = 0
KVA1 082008Z 17003KT 11/05 A3034 RMK A01 T01080053  RH  069%=      5-min Rain = 0
KVA1 082009Z 14002KT 11/05 A3034 RMK A01 T01080053  RH  069%=      5-min Rain = 0
KVA1 082010Z 15002KT 11/05 A3034 RMK A01 T01090053  RH  069%=      5-min Rain = 0
KVA1 082011Z 17004KT 11/05 A3034 RMK A01 T01090054  RH  069%=      5-min Rain = 0
KVA1 082012Z 14003KT 11/05 A3034 RMK A01 T01090054  RH  069%=      5-min Rain = 0
KVA1 082013Z 16002KT 11/06 A3034 RMK A01 T01090055  RH  069%=      5-min Rain = 0
KVA1 082014Z 13000KT 11/05 A3034 RMK A01 T01110054  RH  068%=      5-min Rain = 0
KVA1 082015Z 19000KT 11/05 A3034 RMK A01 T01110054  RH  068%=      5-min Rain = 0
KVA1 082016Z 23000KT 11/05 A3033 RMK A01 T01110054  RH  068%=      5-min Rain = 0
KVA1 082017Z 21001KT 11/06 A3033 RMK A01 T01120055  RH  068%=      5-min Rain = 0
KVA1 082018Z 18001KT 11/06 A3033 RMK A01 T01120055  RH  068%=      5-min Rain = 0
KVA1 082019Z 16003KT 11/06 A3033 RMK A01 T01130055  RH  068%=      5-min Rain = 0
KVA1 082020Z 14002KT 11/06 A3033 RMK A01 T01130056  RH  068%=      5-min Rain = 0
KVA1 082021Z 13002KT 11/06 A3033 RMK A01 T01140056  RH  067%=      5-min Rain = 0
KVA1 082022Z 12002KT 11/06 A3033 RMK A01 T01140057  RH  068%=      5-min Rain = 0
KVA1 082023Z 18004KT 12/06 A3033 RMK A01 T01150056  RH  067%=      5-min Rain = 0
KVA1 082024Z 20003KT 11/06 A3033 RMK A01 T01140056  RH  067%=      5-min Rain = 0
KVA1 082025Z 18002KT 11/06 A3033 RMK A01 T01140056  RH  068%=      5-min Rain = 0
KVA1 082026Z 19001KT 11/06 A3033 RMK A01 T01130056  RH  068%=      5-min Rain = 0
KVA1 082027Z 23001KT 11/06 A3033 RMK A01 T01130055  RH  068%=      5-min Rain = 0
KVA1 082028Z 20001KT 11/06 A3033 RMK A01 T01140056  RH  068%=      5-min Rain = 0
KVA1 082029Z 17003KT 11/06 A3033 RMK A01 T01140056  RH  067%=      5-min Rain = 0
KVA1 082030Z 15003KT 11/06 A3033 RMK A01 T01140057  RH  068%=      5-min Rain = 0
KVA1 082031Z 17003KT 12/06 A3033 RMK A01 T01150058  RH  068%=      5-min Rain = 0
KVA1 082032Z 19002KT 12/06 A3033 RMK A01 T01160058  RH  068%=      5-min Rain = 0
KVA1 082033Z 19001KT 12/06 A3033 RMK A01 T01150057  RH  067%=      5-min Rain = 0
KVA1 082034Z 18001KT 11/06 A3033 RMK A01 T01140057  RH  068%=      5-min Rain = 0
KVA1 082035Z 19003KT 11/06 A3033 RMK A01 T01140058  RH  068%=      5-min Rain = 0
KVA1 082036Z 16003KT 11/06 A3033 RMK A01 T01140058  RH  068%=      5-min Rain = 0
KVA1 082037Z 13003KT 11/06 A3033 RMK A01 T01140058  RH  069%=      5-min Rain = 0
KVA1 082038Z 14002KT 12/06 A3033 RMK A01 T01150059  RH  069%=      5-min Rain = 0
KVA1 082039Z 13002KT 12/06 A3033 RMK A01 T01150059  RH  068%=      5-min Rain = 0
KVA1 082040Z 07001KT 12/06 A3033 RMK A01 T01150059  RH  068%=      5-min Rain = 0
KVA1 082041Z 06001KT 12/06 A3033 RMK A01 T01150059  RH  068%=      5-min Rain = 0
KVA1 082042Z 06000KT 12/06 A3033 RMK A01 T01150059  RH  068%=      5-min Rain = 0
KVA1 082043Z 20002KT 12/06 A3033 RMK A01 T01160060  RH  069%=      5-min Rain = 0
KVA1 082044Z 21001KT 12/06 A3033 RMK A01 T01160059  RH  068%=      5-min Rain = 0
KVA1 082045Z 32000KT 12/06 A3033 RMK A01 T01150059  RH  068%=      5-min Rain = 0
KVA1 082046Z 23001KT 12/06 A3033 RMK A01 T01150059  RH  068%=      5-min Rain = 0
KVA1 082047Z 25002KT 12/06 A3033 RMK A01 T01150059  RH  068%=      5-min Rain = 0
KVA1 082048Z 29001KT 11/06 A3033 RMK A01 T01140058  RH  068%=      5-min Rain = 0
KVA1 082049Z 32001KT 11/06 A3033 RMK A01 T01130058  RH  069%=      5-min Rain = 0
KVA1 082050Z 28000KT 11/06 A3033 RMK A01 T01120058  RH  069%=      5-min Rain = 0
KVA1 082051Z 13000KT 11/06 A3033 RMK A01 T01130059  RH  070%=      5-min Rain = 0
KVA1 082052Z 18001KT 11/06 A3033 RMK A01 T01140060  RH  069%=      5-min Rain = 0
KVA1 082053Z 22001KT 12/06 A3033 RMK A01 T01160060  RH  069%=      5-min Rain = 0
KVA1 082054Z 14001KT 12/06 A3033 RMK A01 T01170060  RH  068%=      5-min Rain = 0
KVA1 082055Z 16002KT 12/06 A3033 RMK A01 T01170060  RH  068%=      5-min Rain = 0
KVA1 082056Z 17002KT 12/06 A3032 RMK A01 T01180061  RH  068%=      5-min Rain = 0
KVA1 082057Z 22003KT 12/06 A3033 RMK A01 T01180061  RH  068%=      5-min Rain = 0
KVA1 082058Z 22002KT 12/06 A3033 RMK A01 T01180061  RH  068%=      5-min Rain = 0
KVA1 082059Z 24002KT 12/06 A3033 RMK A01 T01180061  RH  068%=      5-min Rain = 0
KVA1 082100Z 21002KT 12/06 A3033 RMK A01 T01170061  RH  068%=      5-min Rain = 0
KVA1 082101Z 18002KT 12/06 A3033 RMK A01 T01170061  RH  069%=      5-min Rain = 0
KVA1 082102Z 17002KT 12/06 A3033 RMK A01 T01160061  RH  069%=      5-min Rain = 0
KVA1 082103Z 20003KT 12/06 A3033 RMK A01 T01160061  RH  069%=      5-min Rain = 0
KVA1 082104Z 21003KT 12/06 A3033 RMK A01 T01180062  RH  069%=      5-min Rain = 0
KVA1 082105Z 20003KT 12/06 A3033 RMK A01 T01180062  RH  068%=      5-min Rain = 0
KVA1 082106Z 20002KT 12/06 A3033 RMK A01 T01170062  RH  069%=      5-min Rain = 0
KVA1 082107Z 16001KT 12/06 A3033 RMK A01 T01170062  RH  069%=      5-min Rain = 0
KVA1 082108Z 15000KT 12/06 A3033 RMK A01 T01170062  RH  069%=      5-min Rain = 0
KVA1 082109Z 08000KT 12/06 A3032 RMK A01 T01170062  RH  069%=      5-min Rain = 0
KVA1 082110Z 07001KT 12/06 A3032 RMK A01 T01170062  RH  069%=      5-min Rain = 0
KVA1 082111Z 07001KT 12/06 A3032 RMK A01 T01170061  RH  069%=      5-min Rain = 0
KVA1 082112Z 03001KT 12/06 A3032 RMK A01 T01150061  RH  069%=      5-min Rain = 0
KVA1 082113Z 04002KT 12/06 A3032 RMK A01 T01150062  RH  070%=      5-min Rain = 0
KVA1 082114Z 05001KT 12/06 A3032 RMK A01 T01160062  RH  069%=      5-min Rain = 0
KVA1 082115Z 06001KT 12/06 A3032 RMK A01 T01170062  RH  069%=      5-min Rain = 0
KVA1 082116Z 07001KT 12/06 A3032 RMK A01 T01170062  RH  069%=      5-min Rain = 0
KVA1 082117Z 06000KT 12/06 A3032 RMK A01 T01170063  RH  069%=      5-min Rain = 0
KVA1 082118Z 04001KT 12/06 A3032 RMK A01 T01170063  RH  069%=      5-min Rain = 0
KVA1 082119Z 34002KT 12/06 A3032 RMK A01 T01180063  RH  069%=      5-min Rain = 0
KVA1 082120Z 34001KT 12/06 A3033 RMK A01 T01190063  RH  069%=      5-min Rain = 0
KVA1 082121Z 02001KT 12/06 A3033 RMK A01 T01190062  RH  068%=      5-min Rain = 0
KVA1 082122Z 03000KT 12/06 A3033 RMK A01 T01200062  RH  068%=      5-min Rain = 0
KVA1 082123Z 17000KT 12/06 A3033 RMK A01 T01200062  RH  068%=      5-min Rain = 0
KVA1 082124Z 19001KT 12/06 A3033 RMK A01 T01200063  RH  068%=      5-min Rain = 0
KVA1 082125Z 15001KT 12/06 A3033 RMK A01 T01200063  RH  068%=      5-min Rain = 0
KVA1 082126Z 16001KT 12/06 A3033 RMK A01 T01210064  RH  068%=      5-min Rain = 0
KVA1 082127Z 23001KT 12/06 A3033 RMK A01 T01220064  RH  068%=      5-min Rain = 0
KVA1 082128Z 26001KT 12/06 A3033 RMK A01 T01230063  RH  067%=      5-min Rain = 0
KVA1 082129Z 21002KT 12/06 A3033 RMK A01 T01230063  RH  067%=      5-min Rain = 0
KVA1 082130Z 15000KT 12/06 A3033 RMK A01 T01230064  RH  067%=      5-min Rain = 0
KVA1 082131Z 00000KT 12/07 A3033 RMK A01 T01240065  RH  067%=      5-min Rain = 0
KVA1 082132Z 12000KT 13/07 A3033 RMK A01 T01250065  RH  067%=      5-min Rain = 0
KVA1 082133Z 04001KT 13/06 A3033 RMK A01 T01260064  RH  066%=      5-min Rain = 0
KVA1 082134Z 32002KT 13/06 A3033 RMK A01 T01260064  RH  066%=      5-min Rain = 0
KVA1 082135Z 27001KT 13/06 A3033 RMK A01 T01250062  RH  066%=      5-min Rain = 0
KVA1 082136Z 20002KT 12/06 A3033 RMK A01 T01240063  RH  066%=      5-min Rain = 0
KVA1 082137Z 17001KT 12/06 A3032 RMK A01 T01230063  RH  066%=      5-min Rain = 0
KVA1 082138Z 16001KT 12/06 A3032 RMK A01 T01230064  RH  067%=      5-min Rain = 0
KVA1 082139Z 14002KT 12/06 A3032 RMK A01 T01230064  RH  067%=      5-min Rain = 0
KVA1 082140Z 09002KT 12/06 A3032 RMK A01 T01230064  RH  067%=      5-min Rain = 0
KVA1 082141Z 08002KT 12/06 A3032 RMK A01 T01230064  RH  067%=      5-min Rain = 0
KVA1 082142Z 07001KT 12/06 A3032 RMK A01 T01230064  RH  067%=      5-min Rain = 0
KVA1 082143Z 10000KT 12/06 A3032 RMK A01 T01230063  RH  067%=      5-min Rain = 0
KVA1 082144Z 11002KT 12/06 A3032 RMK A01 T01220063  RH  067%=      5-min Rain = 0
KVA1 082145Z 14002KT 12/06 A3032 RMK A01 T01230064  RH  067%=      5-min Rain = 0
KVA1 082146Z 17003KT 12/06 A3032 RMK A01 T01230064  RH  067%=      5-min Rain = 0
KVA1 082147Z 19002KT 12/06 A3031 RMK A01 T01230063  RH  067%=      5-min Rain = 0
KVA1 082148Z 21002KT 12/06 A3032 RMK A01 T01230063  RH  067%=      5-min Rain = 0
KVA1 082149Z 21000KT 12/06 A3032 RMK A01 T01220064  RH  067%=      5-min Rain = 0
KVA1 082150Z 32000KT 12/06 A3032 RMK A01 T01220063  RH  067%=      5-min Rain = 0
KVA1 082151Z 01001KT 12/06 A3032 RMK A01 T01220063  RH  067%=      5-min Rain = 0
KVA1 082152Z 05002KT 12/06 A3032 RMK A01 T01220063  RH  067%=      5-min Rain = 0
KVA1 082153Z 05003KT 12/06 A3032 RMK A01 T01220063  RH  067%=      5-min Rain = 0
KVA1 082154Z 05002KT 12/06 A3032 RMK A01 T01220063  RH  067%=      5-min Rain = 0
KVA1 082155Z 06003KT 12/06 A3032 RMK A01 T01220063  RH  067%=      5-min Rain = 0
KVA1 082156Z 08001KT 12/06 A3031 RMK A01 T01220063  RH  067%=      5-min Rain = 0
KVA1 082157Z 10002KT 12/06 A3031 RMK A01 T01210063  RH  068%=      5-min Rain = 0
KVA1 082158Z 09001KT 12/06 A3031 RMK A01 T01220063  RH  067%=      5-min Rain = 0
KVA1 082159Z 10001KT 12/06 A3031 RMK A01 T01220063  RH  067%=      5-min Rain = 0
KVA1 082200Z 11001KT 12/06 A3031 RMK A01 T01220063  RH  067%=      5-min Rain = 0
KVA1 082201Z 13000KT 12/06 A3031 RMK A01 T01220063  RH  067%=      5-min Rain = 0
KVA1 082202Z 00000KT 12/06 A3031 RMK A01 T01220063  RH  067%=      5-min Rain = 0
KVA1 082203Z 20000KT 12/06 A3031 RMK A01 T01210062  RH  067%=      5-min Rain = 0
KVA1 082204Z 00000KT 12/06 A3031 RMK A01 T01210062  RH  067%=      5-min Rain = 0
KVA1 082205Z 07000KT 12/06 A3031 RMK A01 T01210062  RH  067%=      5-min Rain = 0
KVA1 082206Z 08000KT 12/06 A3031 RMK A01 T01220062  RH  067%=      5-min Rain = 0
KVA1 082207Z 09000KT 12/06 A3031 RMK A01 T01220062  RH  067%=      5-min Rain = 0
KVA1 082208Z 06001KT 12/06 A3031 RMK A01 T01220062  RH  067%=      5-min Rain = 0
KVA1 082209Z 08002KT 12/06 A3031 RMK A01 T01230062  RH  066%=      5-min Rain = 0
KVA1 082210Z 08002KT 12/06 A3031 RMK A01 T01230062  RH  066%=      5-min Rain = 0
KVA1 082211Z 07001KT 12/06 A3031 RMK A01 T01230062  RH  066%=      5-min Rain = 0
KVA1 082212Z 05001KT 12/06 A3031 RMK A01 T01220062  RH  067%=      5-min Rain = 0
KVA1 082213Z 10002KT 12/06 A3031 RMK A01 T01220062  RH  067%=      5-min Rain = 0
KVA1 082214Z 11001KT 12/06 A3031 RMK A01 T01220062  RH  067%=      5-min Rain = 0
KVA1 082215Z 11001KT 12/06 A3031 RMK A01 T01210062  RH  067%=      5-min Rain = 0
KVA1 082216Z 11002KT 12/06 A3032 RMK A01 T01220062  RH  067%=      5-min Rain = 0
KVA1 082217Z 11001KT 12/06 A3032 RMK A01 T01220062  RH  067%=      5-min Rain = 0
KVA1 082218Z 11001KT 12/06 A3032 RMK A01 T01220062  RH  066%=      5-min Rain = 0
KVA1 082219Z 12001KT 12/06 A3031 RMK A01 T01220062  RH  066%=      5-min Rain = 0
KVA1 082220Z 13000KT 12/06 A3031 RMK A01 T01220061  RH  067%=      5-min Rain = 0
KVA1 082221Z 14000KT 12/06 A3031 RMK A01 T01220061  RH  066%=      5-min Rain = 0
KVA1 082222Z 17001KT 12/06 A3031 RMK A01 T01220061  RH  066%=      5-min Rain = 0
KVA1 082223Z 19001KT 12/06 A3031 RMK A01 T01220061  RH  066%=      5-min Rain = 0
KVA1 082224Z 21000KT 12/06 A3031 RMK A01 T01230062  RH  066%=      5-min Rain = 0
KVA1 082225Z 00000KT 12/06 A3031 RMK A01 T01230061  RH  066%=      5-min Rain = 0
KVA1 082226Z 06000KT 12/06 A3031 RMK A01 T01230061  RH  066%=      5-min Rain = 0
KVA1 082227Z 05002KT 12/06 A3031 RMK A01 T01230062  RH  066%=      5-min Rain = 0
KVA1 082228Z 06002KT 12/06 A3031 RMK A01 T01230062  RH  066%=      5-min Rain = 0
KVA1 082229Z 05002KT 12/06 A3031 RMK A01 T01230062  RH  066%=      5-min Rain = 0
KVA1 082230Z 05002KT 12/06 A3031 RMK A01 T01230062  RH  067%=      5-min Rain = 0
KVA1 082231Z 06001KT 12/06 A3031 RMK A01 T01230062  RH  067%=      5-min Rain = 0
KVA1 082232Z 04002KT 12/06 A3031 RMK A01 T01230062  RH  066%=      5-min Rain = 0
KVA1 082233Z 05001KT 12/06 A3031 RMK A01 T01220062  RH  067%=      5-min Rain = 0
KVA1 082234Z 06002KT 12/06 A3031 RMK A01 T01220062  RH  067%=      5-min Rain = 0
KVA1 082235Z 06001KT 12/06 A3031 RMK A01 T01220062  RH  067%=      5-min Rain = 0
KVA1 082236Z 07000KT 12/06 A3031 RMK A01 T01220061  RH  067%=      5-min Rain = 0
KVA1 082237Z 00000KT 12/06 A3031 RMK A01 T01220062  RH  067%=      5-min Rain = 0
KVA1 082238Z 09001KT 12/06 A3031 RMK A01 T01220062  RH  067%=      5-min Rain = 0
KVA1 082239Z 08002KT 12/06 A3031 RMK A01 T01220062  RH  067%=      5-min Rain = 0
KVA1 082240Z 08001KT 12/06 A3031 RMK A01 T01220062  RH  067%=      5-min Rain = 0
KVA1 082241Z 10001KT 12/06 A3031 RMK A01 T01220062  RH  067%=      5-min Rain = 0
KVA1 082242Z 11001KT 12/06 A3031 RMK A01 T01220062  RH  067%=      5-min Rain = 0
KVA1 082243Z 09001KT 12/06 A3031 RMK A01 T01220062  RH  067%=      5-min Rain = 0
KVA1 082244Z 09001KT 12/06 A3031 RMK A01 T01220062  RH  067%=      5-min Rain = 0
KVA1 082245Z 09000KT 12/06 A3031 RMK A01 T01220062  RH  067%=      5-min Rain = 0
KVA1 082246Z 00000KT 12/06 A3031 RMK A01 T01220061  RH  067%=      5-min Rain = 0
KVA1 082247Z 00000KT 12/06 A3031 RMK A01 T01220062  RH  067%=      5-min Rain = 0
KVA1 082248Z 00000KT 12/06 A3031 RMK A01 T01220062  RH  067%=      5-min Rain = 0
KVA1 082249Z 09000KT 12/06 A3031 RMK A01 T01220062  RH  067%=      5-min Rain = 0
KVA1 082250Z 00000KT 12/06 A3031 RMK A01 T01220061  RH  066%=      5-min Rain = 0
KVA1 082251Z 07000KT 12/06 A3031 RMK A01 T01220061  RH  066%=      5-min Rain = 0
KVA1 082252Z 10002KT 12/06 A3031 RMK A01 T01220061  RH  066%=      5-min Rain = 0
KVA1 082253Z 11001KT 12/06 A3031 RMK A01 T01220061  RH  066%=      5-min Rain = 0
KVA1 082254Z 14001KT 12/06 A3031 RMK A01 T01220061  RH  066%=      5-min Rain = 0
KVA1 082255Z 14000KT 12/06 A3031 RMK A01 T01220061  RH  066%=      5-min Rain = 0
KVA1 082256Z 00000KT 12/06 A3031 RMK A01 T01220061  RH  066%=      5-min Rain = 0
KVA1 082257Z 07000KT 12/06 A3031 RMK A01 T01220061  RH  066%=      5-min Rain = 0
KVA1 082258Z 00000KT 12/06 A3031 RMK A01 T01220061  RH  066%=      5-min Rain = 0
KVA1 082259Z 06001KT 12/06 A3031 RMK A01 T01220061  RH  066%=      5-min Rain = 0
KVA1 082300Z 07003KT 12/06 A3031 RMK A01 T01220062  RH  067%=      5-min Rain = 0
KVA1 082301Z 07003KT 12/06 A3031 RMK A01 T01220062  RH  067%=      5-min Rain = 0
KVA1 082302Z 06002KT 12/06 A3031 RMK A01 T01220063  RH  067%=      5-min Rain = 0
KVA1 082303Z 04002KT 12/06 A3031 RMK A01 T01220062  RH  067%=      5-min Rain = 0
KVA1 082304Z 07002KT 12/06 A3031 RMK A01 T01210062  RH  067%=      5-min Rain = 0
KVA1 082305Z 08001KT 12/06 A3031 RMK A01 T01210062  RH  067%=      5-min Rain = 0
KVA1 082306Z 04001KT 12/06 A3031 RMK A01 T01220062  RH  067%=      5-min Rain = 0
KVA1 082307Z 02001KT 12/06 A3031 RMK A01 T01220062  RH  067%=      5-min Rain = 0
KVA1 082308Z 05001KT 12/06 A3031 RMK A01 T01220062  RH  067%=      5-min Rain = 0
KVA1 082309Z 05000KT 12/06 A3031 RMK A01 T01220062  RH  067%=      5-min Rain = 0
KVA1 082310Z 06002KT 12/06 A3031 RMK A01 T01220062  RH  067%=      5-min Rain = 0
KVA1 082311Z 07003KT 12/06 A3031 RMK A01 T01220062  RH  067%=      5-min Rain = 0
KVA1 082312Z 07002KT 12/06 A3031 RMK A01 T01220063  RH  067%=      5-min Rain = 0
KVA1 082313Z 07002KT 12/06 A3031 RMK A01 T01220063  RH  067%=      5-min Rain = 0
KVA1 082314Z 07001KT 12/06 A3031 RMK A01 T01220063  RH  067%=      5-min Rain = 0
KVA1 082315Z 07001KT 12/06 A3031 RMK A01 T01220063  RH  067%=      5-min Rain = 0
KVA1 082316Z 06002KT 12/06 A3031 RMK A01 T01220063  RH  067%=      5-min Rain = 0
KVA1 082317Z 07002KT 12/06 A3031 RMK A01 T01220063  RH  067%=      5-min Rain = 0
KVA1 082318Z 08001KT 12/06 A3031 RMK A01 T01220063  RH  067%=      5-min Rain = 0
KVA1 082319Z 08001KT 12/06 A3031 RMK A01 T01220063  RH  067%=      5-min Rain = 0
KVA1 082320Z 07002KT 12/06 A3031 RMK A01 T01220063  RH  067%=      5-min Rain = 0
KVA1 082321Z 09002KT 12/06 A3031 RMK A01 T01220063  RH  067%=      5-min Rain = 0
KVA1 082322Z 07003KT 12/06 A3031 RMK A01 T01220062  RH  067%=      5-min Rain = 0
KVA1 082323Z 06002KT 12/06 A3031 RMK A01 T01210061  RH  066%=      5-min Rain = 0
KVA1 082324Z 05002KT 12/06 A3031 RMK A01 T01210061  RH  066%=      5-min Rain = 0
KVA1 082325Z 06003KT 12/06 A3031 RMK A01 T01210060  RH  066%=      5-min Rain = 0
KVA1 082326Z 06003KT 12/06 A3031 RMK A01 T01210060  RH  067%=      5-min Rain = 0
KVA1 082327Z 07004KT 12/06 A3031 RMK A01 T01210061  RH  067%=      5-min Rain = 0
KVA1 082328Z 07003KT 12/06 A3031 RMK A01 T01210061  RH  067%=      5-min Rain = 0
KVA1 082329Z 08003KT 12/06 A3031 RMK A01 T01210061  RH  067%=      5-min Rain = 0
KVA1 082330Z 07003KT 12/06 A3031 RMK A01 T01210061  RH  067%=      5-min Rain = 0
KVA1 082331Z 05002KT 12/06 A3031 RMK A01 T01200061  RH  067%=      5-min Rain = 0
KVA1 082332Z 05003KT 12/06 A3031 RMK A01 T01200061  RH  067%=      5-min Rain = 0
KVA1 082333Z 06003KT 12/06 A3031 RMK A01 T01210061  RH  067%=      5-min Rain = 0
KVA1 082334Z 07002KT 12/06 A3031 RMK A01 T01200061  RH  067%=      5-min Rain = 0
KVA1 082335Z 08002KT 12/06 A3031 RMK A01 T01200061  RH  067%=      5-min Rain = 0
KVA1 082336Z 07002KT 12/06 A3031 RMK A01 T01200061  RH  067%=      5-min Rain = 0
KVA1 082337Z 07002KT 12/06 A3031 RMK A01 T01200061  RH  067%=      5-min Rain = 0
KVA1 082338Z 07002KT 12/06 A3031 RMK A01 T01200061  RH  067%=      5-min Rain = 0
KVA1 082339Z 07001KT 12/06 A3031 RMK A01 T01190061  RH  067%=      5-min Rain = 0
KVA1 082340Z 08001KT 12/06 A3031 RMK A01 T01200061  RH  067%=      5-min Rain = 0
KVA1 082341Z 06001KT 12/06 A3031 RMK A01 T01190061  RH  067%=      5-min Rain = 0
KVA1 082342Z 06002KT 12/06 A3031 RMK A01 T01190060  RH  067%=      5-min Rain = 0
KVA1 082343Z 07002KT 12/06 A3031 RMK A01 T01200060  RH  067%=      5-min Rain = 0
KVA1 082344Z 06002KT 12/06 A3031 RMK A01 T01200060  RH  067%=      5-min Rain = 0
KVA1 082345Z 06003KT 12/06 A3031 RMK A01 T01200060  RH  067%=      5-min Rain = 0
KVA1 082346Z 06003KT 12/06 A3031 RMK A01 T01190060  RH  067%=      5-min Rain = 0
KVA1 082347Z 07003KT 12/06 A3031 RMK A01 T01200060  RH  067%=      5-min Rain = 0
KVA1 082348Z 06003KT 12/06 A3031 RMK A01 T01200060  RH  067%=      5-min Rain = 0
KVA1 082349Z 06002KT 12/06 A3031 RMK A01 T01190060  RH  067%=      5-min Rain = 0
KVA1 082350Z 05003KT 12/06 A3031 RMK A01 T01190060  RH  067%=      5-min Rain = 0
KVA1 082351Z 05003KT 12/06 A3031 RMK A01 T01190060  RH  067%=      5-min Rain = 0
KVA1 082352Z 05004KT 12/06 A3031 RMK A01 T01190060  RH  067%=      5-min Rain = 0
KVA1 082353Z 05004KT 12/06 A3031 RMK A01 T01190060  RH  067%=      5-min Rain = 0
KVA1 082354Z 05004KT 12/06 A3031 RMK A01 T01190059  RH  067%=      5-min Rain = 0
KVA1 082355Z 06003KT 12/06 A3031 RMK A01 T01190059  RH  067%=      5-min Rain = 0
KVA1 082356Z 05003KT 12/06 A3031 RMK A01 T01190059  RH  067%=      5-min Rain = 0
KVA1 082357Z 06003KT 12/06 A3031 RMK A01 T01190058  RH  066%=      5-min Rain = 0
KVA1 082358Z 07004KT 12/06 A3031 RMK A01 T01180057  RH  066%=      5-min Rain = 0
KVA1 082359Z 06003KT 12/06 A3031 RMK A01 T01180056  RH  066%=      5-min Rain = 0
KVA1 090000Z 07003KT 12/06 A3031 RMK A01 T01180056  RH  066%=      5-min Rain = 0
KVA1 090001Z 06004KT 12/06 A3031 RMK A01 T01180056  RH  066%=      5-min Rain = 0
KVA1 090002Z 07003KT 12/06 A3031 RMK A01 T01180056  RH  066%=      5-min Rain = 0
KVA1 090003Z 06003KT 12/06 A3031 RMK A01 T01170056  RH  066%=      5-min Rain = 0
KVA1 090004Z 06004KT 12/06 A3031 RMK A01 T01170056  RH  066%=      5-min Rain = 0
KVA1 090005Z 06005KT 12/06 A3031 RMK A01 T01170055  RH  066%=      5-min Rain = 0
KVA1 090006Z 06005KT 12/06 A3031 RMK A01 T01170056  RH  066%=      5-min Rain = 0
KVA1 090007Z 07004KT 12/06 A3031 RMK A01 T01160055  RH  066%=      5-min Rain = 0
KVA1 090008Z 07003KT 12/06 A3031 RMK A01 T01160056  RH  066%=      5-min Rain = 0
KVA1 090009Z 07002KT 12/06 A3031 RMK A01 T01160056  RH  066%=      5-min Rain = 0
KVA1 090010Z 08004KT 12/06 A3031 RMK A01 T01160056  RH  067%=      5-min Rain = 0
KVA1 090011Z 08004KT 12/06 A3031 RMK A01 T01150055  RH  067%=      5-min Rain = 0
KVA1 090012Z 07004KT 12/06 A3031 RMK A01 T01150055  RH  067%=      5-min Rain = 0
KVA1 090013Z 07004KT 12/06 A3031 RMK A01 T01150056  RH  067%=      5-min Rain = 0
KVA1 090014Z 07004KT 12/06 A3031 RMK A01 T01150056  RH  067%=      5-min Rain = 0
KVA1 090015Z 07004KT 12/06 A3031 RMK A01 T01150055  RH  067%=      5-min Rain = 0
KVA1 090016Z 07003KT 12/06 A3031 RMK A01 T01150055  RH  067%=      5-min Rain = 0
KVA1 090017Z 07002KT 12/06 A3031 RMK A01 T01150055  RH  067%=      5-min Rain = 0
KVA1 090018Z 08004KT 12/06 A3031 RMK A01 T01150055  RH  067%=      5-min Rain = 0
KVA1 090019Z 09004KT 11/06 A3031 RMK A01 T01140055  RH  067%=      5-min Rain = 0
KVA1 090020Z 09003KT 11/06 A3031 RMK A01 T01140055  RH  067%=      5-min Rain = 0
KVA1 090021Z 09002KT 11/06 A3031 RMK A01 T01140055  RH  067%=      5-min Rain = 0
KVA1 090022Z 09002KT 11/06 A3031 RMK A01 T01140056  RH  067%=      5-min Rain = 0
KVA1 090023Z 09002KT 11/06 A3031 RMK A01 T01140056  RH  067%=      5-min Rain = 0
KVA1 090024Z 09002KT 11/06 A3031 RMK A01 T01140055  RH  067%=      5-min Rain = 0
KVA1 090025Z 09002KT 11/06 A3031 RMK A01 T01140055  RH  067%=      5-min Rain = 0
KVA1 090026Z 08002KT 11/06 A3031 RMK A01 T01140055  RH  067%=      5-min Rain = 0
KVA1 090027Z 07002KT 11/06 A3031 RMK A01 T01140055  RH  067%=      5-min Rain = 0
KVA1 090028Z 07001KT 11/06 A3031 RMK A01 T01140055  RH  067%=      5-min Rain = 0
KVA1 090029Z 06001KT 11/06 A3031 RMK A01 T01140055  RH  067%=      5-min Rain = 0
KVA1 090030Z 06001KT 11/06 A3031 RMK A01 T01140056  RH  067%=      5-min Rain = 0
KVA1 090031Z 06002KT 11/06 A3031 RMK A01 T01140056  RH  067%=      5-min Rain = 0
KVA1 090032Z 06002KT 11/06 A3031 RMK A01 T01130055  RH  067%=      5-min Rain = 0
KVA1 090033Z 06002KT 11/06 A3031 RMK A01 T01140055  RH  067%=      5-min Rain = 0
KVA1 090034Z 07002KT 11/06 A3031 RMK A01 T01140055  RH  067%=      5-min Rain = 0
KVA1 090035Z 08001KT 11/06 A3031 RMK A01 T01130055  RH  067%=      5-min Rain = 0
KVA1 090036Z 06001KT 11/06 A3031 RMK A01 T01130055  RH  068%=      5-min Rain = 0
KVA1 090037Z 03001KT 11/06 A3031 RMK A01 T01130055  RH  068%=      5-min Rain = 0
KVA1 090038Z 01003KT 11/06 A3032 RMK A01 T01130056  RH  068%=      5-min Rain = 0
KVA1 090039Z 01004KT 11/06 A3032 RMK A01 T01130056  RH  068%=      5-min Rain = 0
KVA1 090040Z 01004KT 11/06 A3032 RMK A01 T01120055  RH  068%=      5-min Rain = 0
KVA1 090041Z 02003KT 11/06 A3031 RMK A01 T01120055  RH  068%=      5-min Rain = 0
KVA1 090042Z 02002KT 11/06 A3031 RMK A01 T01120055  RH  068%=      5-min Rain = 0
KVA1 090043Z 03002KT 11/06 A3031 RMK A01 T01120056  RH  068%=      5-min Rain = 0
KVA1 090044Z 04002KT 11/06 A3031 RMK A01 T01120056  RH  068%=      5-min Rain = 0
KVA1 090045Z 03002KT 11/06 A3031 RMK A01 T01120056  RH  068%=      5-min Rain = 0
KVA1 090046Z 03002KT 11/06 A3031 RMK A01 T01110056  RH  068%=      5-min Rain = 0
KVA1 090047Z 04002KT 11/06 A3031 RMK A01 T01110055  RH  068%=      5-min Rain = 0
KVA1 090048Z 04002KT 11/06 A3031 RMK A01 T01110056  RH  068%=      5-min Rain = 0
KVA1 090049Z 04002KT 11/06 A3031 RMK A01 T01110055  RH  068%=      5-min Rain = 0
KVA1 090050Z 03002KT 11/06 A3031 RMK A01 T01110055  RH  068%=      5-min Rain = 0
KVA1 090051Z 02002KT 11/06 A3031 RMK A01 T01110055  RH  069%=      5-min Rain = 0
KVA1 090052Z 01002KT 11/06 A3032 RMK A01 T01110056  RH  069%=      5-min Rain = 0
KVA1 090053Z 01002KT 11/06 A3032 RMK A01 T01110055  RH  069%=      5-min Rain = 0
KVA1 090054Z 01002KT 11/06 A3032 RMK A01 T01110055  RH  069%=      5-min Rain = 0
KVA1 090055Z 01002KT 11/06 A3032 RMK A01 T01100055  RH  069%=      5-min Rain = 0
KVA1 090056Z 00003KT 11/06 A3032 RMK A01 T01100055  RH  069%=      5-min Rain = 0
KVA1 090057Z 36003KT 11/06 A3032 RMK A01 T01100055  RH  069%=      5-min Rain = 0
KVA1 090058Z 00003KT 11/06 A3031 RMK A01 T01100055  RH  069%=      5-min Rain = 0
KVA1 090059Z 01003KT 11/06 A3031 RMK A01 T01100055  RH  069%=      5-min Rain = 0
KVA1 090100Z 02003KT 11/06 A3031 RMK A01 T01090055  RH  069%=      5-min Rain = 0
KVA1 090101Z 02003KT 11/06 A3031 RMK A01 T01090055  RH  069%=      5-min Rain = 0
KVA1 090102Z 02003KT 11/06 A3032 RMK A01 T01090055  RH  069%=      5-min Rain = 0
KVA1 090103Z 01003KT 11/06 A3032 RMK A01 T01090055  RH  069%=      5-min Rain = 0
KVA1 090104Z 01003KT 11/06 A3032 RMK A01 T01090055  RH  069%=      5-min Rain = 0
KVA1 090105Z 00002KT 11/06 A3032 RMK A01 T01090055  RH  069%=      5-min Rain = 0
KVA1 090106Z 01002KT 11/06 A3032 RMK A01 T01090055  RH  069%=      5-min Rain = 0
KVA1 090107Z 02002KT 11/06 A3032 RMK A01 T01090055  RH  069%=      5-min Rain = 0
KVA1 090108Z 01002KT 11/06 A3032 RMK A01 T01080055  RH  069%=      5-min Rain = 0
KVA1 090109Z 01003KT 11/06 A3032 RMK A01 T01080055  RH  070%=      5-min Rain = 0
KVA1 090110Z 00003KT 11/06 A3032 RMK A01 T01080055  RH  070%=      5-min Rain = 0
KVA1 090111Z 00003KT 11/06 A3032 RMK A01 T01080055  RH  070%=      5-min Rain = 0
KVA1 090112Z 00003KT 11/06 A3032 RMK A01 T01080055  RH  070%=      5-min Rain = 0
KVA1 090113Z 01002KT 11/06 A3032 RMK A01 T01080055  RH  070%=      5-min Rain = 0
KVA1 090114Z 02002KT 11/06 A3032 RMK A01 T01070055  RH  070%=      5-min Rain = 0
KVA1 090115Z 02002KT 11/06 A3032 RMK A01 T01070055  RH  070%=      5-min Rain = 0
KVA1 090116Z 02002KT 11/06 A3032 RMK A01 T01070055  RH  070%=      5-min Rain = 0
KVA1 090117Z 01002KT 11/06 A3032 RMK A01 T01070055  RH  070%=      5-min Rain = 0
KVA1 090118Z 02002KT 11/06 A3032 RMK A01 T01060055  RH  071%=      5-min Rain = 0
KVA1 090119Z 02002KT 11/06 A3032 RMK A01 T01070056  RH  071%=      5-min Rain = 0
KVA1 090120Z 02003KT 11/06 A3032 RMK A01 T01060056  RH  071%=      5-min Rain = 0
KVA1 090121Z 02003KT 11/06 A3032 RMK A01 T01060055  RH  071%=      5-min Rain = 0
KVA1 090122Z 02003KT 11/06 A3032 RMK A01 T01050055  RH  071%=      5-min Rain = 0
KVA1 090123Z 02003KT 11/06 A3032 RMK A01 T01050055  RH  071%=      5-min Rain = 0
KVA1 090124Z 01003KT 11/06 A3032 RMK A01 T01050055  RH  071%=      5-min Rain = 0
KVA1 090125Z 01003KT 10/06 A3032 RMK A01 T01040055  RH  071%=      5-min Rain = 0
KVA1 090126Z 01003KT 10/06 A3033 RMK A01 T01040055  RH  072%=      5-min Rain = 0
KVA1 090127Z 00003KT 10/06 A3033 RMK A01 T01040055  RH  072%=      5-min Rain = 0
KVA1 090128Z 00004KT 10/06 A3033 RMK A01 T01030055  RH  072%=      5-min Rain = 0
KVA1 090129Z 36004KT 10/06 A3033 RMK A01 T01030055  RH  072%=      5-min Rain = 0
KVA1 090130Z 35004KT 10/06 A3033 RMK A01 T01030055  RH  072%=      5-min Rain = 0
KVA1 090131Z 36004KT 10/06 A3033 RMK A01 T01030055  RH  072%=      5-min Rain = 0
KVA1 090132Z 36004KT 10/06 A3033 RMK A01 T01020055  RH  072%=      5-min Rain = 0
KVA1 090133Z 35003KT 10/06 A3033 RMK A01 T01030055  RH  072%=      5-min Rain = 0
KVA1 090134Z 35003KT 10/06 A3033 RMK A01 T01020055  RH  072%=      5-min Rain = 0
KVA1 090135Z 35003KT 10/06 A3033 RMK A01 T01020055  RH  072%=      5-min Rain = 0
KVA1 090136Z 34003KT 10/06 A3033 RMK A01 T01030055  RH  072%=      5-min Rain = 0
KVA1 090137Z 35003KT 10/05 A3033 RMK A01 T01030054  RH  072%=      5-min Rain = 0
KVA1 090138Z 36003KT 10/05 A3033 RMK A01 T01030054  RH  072%=      5-min Rain = 0
KVA1 090139Z 36002KT 10/05 A3033 RMK A01 T01020054  RH  072%=      5-min Rain = 0
KVA1 090140Z 36003KT 10/05 A3033 RMK A01 T01010054  RH  072%=      5-min Rain = 0
KVA1 090141Z 35003KT 10/05 A3033 RMK A01 T01020054  RH  072%=      5-min Rain = 0
KVA1 090142Z 00002KT 10/05 A3033 RMK A01 T01010054  RH  073%=      5-min Rain = 0
KVA1 090143Z 01002KT 10/05 A3033 RMK A01 T01010054  RH  073%=      5-min Rain = 0
KVA1 090144Z 02002KT 10/05 A3033 RMK A01 T01010054  RH  073%=      5-min Rain = 0
KVA1 090145Z 02002KT 10/05 A3033 RMK A01 T01010054  RH  073%=      5-min Rain = 0
KVA1 090146Z 02003KT 10/05 A3033 RMK A01 T01010054  RH  073%=      5-min Rain = 0
KVA1 090147Z 02004KT 10/05 A3033 RMK A01 T01010054  RH  073%=      5-min Rain = 0
KVA1 090148Z 02003KT 10/05 A3033 RMK A01 T01000054  RH  073%=      5-min Rain = 0
KVA1 090149Z 03003KT 10/05 A3033 RMK A01 T01000054  RH  073%=      5-min Rain = 0
KVA1 090150Z 03003KT 10/05 A3033 RMK A01 T01000054  RH  073%=      5-min Rain = 0
KVA1 090151Z 03002KT 10/05 A3033 RMK A01 T01000054  RH  073%=      5-min Rain = 0
KVA1 090152Z 03003KT 10/05 A3033 RMK A01 T00990054  RH  073%=      5-min Rain = 0
KVA1 090153Z 02003KT 10/05 A3033 RMK A01 T00990054  RH  073%=      5-min Rain = 0
KVA1 090154Z 02003KT 10/05 A3033 RMK A01 T00990054  RH  074%=      5-min Rain = 0
KVA1 090155Z 02004KT 10/05 A3033 RMK A01 T00990054  RH  073%=      5-min Rain = 0
KVA1 090156Z 02003KT 10/05 A3033 RMK A01 T00990054  RH  074%=      5-min Rain = 0
KVA1 090157Z 02003KT 10/05 A3033 RMK A01 T00980054  RH  074%=      5-min Rain = 0
KVA1 090158Z 01003KT 10/05 A3033 RMK A01 T00980054  RH  074%=      5-min Rain = 0
KVA1 090159Z 01003KT 10/05 A3033 RMK A01 T00980054  RH  074%=      5-min Rain = 0
KVA1 090200Z 02003KT 10/05 A3033 RMK A01 T00980053  RH  074%=      5-min Rain = 0
KVA1 090201Z 02004KT 10/05 A3033 RMK A01 T00970053  RH  074%=      5-min Rain = 0
KVA1 090202Z 01004KT 10/05 A3034 RMK A01 T00970053  RH  074%=      5-min Rain = 0
KVA1 090203Z 01004KT 10/05 A3034 RMK A01 T00960053  RH  074%=      5-min Rain = 0
KVA1 090204Z 01004KT 10/05 A3034 RMK A01 T00960053  RH  074%=      5-min Rain = 0
KVA1 090205Z 01003KT 10/05 A3034 RMK A01 T00960053  RH  075%=      5-min Rain = 0
KVA1 090206Z 01003KT 10/05 A3034 RMK A01 T00950053  RH  075%=      5-min Rain = 0
KVA1 090207Z 01002KT 10/05 A3034 RMK A01 T00960053  RH  075%=      5-min Rain = 0
KVA1 090208Z 01002KT 10/05 A3034 RMK A01 T00960053  RH  075%=      5-min Rain = 0
KVA1 090209Z 00002KT 10/05 A3034 RMK A01 T00950053  RH  075%=      5-min Rain = 0
KVA1 090210Z 00002KT 10/05 A3034 RMK A01 T00950053  RH  075%=      5-min Rain = 0
KVA1 090211Z 00002KT 10/05 A3034 RMK A01 T00950052  RH  075%=      5-min Rain = 0
KVA1 090212Z 01002KT 10/05 A3034 RMK A01 T00950052  RH  075%=      5-min Rain = 0
KVA1 090213Z 01003KT 09/05 A3034 RMK A01 T00940052  RH  075%=      5-min Rain = 0
KVA1 090214Z 01003KT 09/05 A3034 RMK A01 T00940052  RH  075%=      5-min Rain = 0
KVA1 090215Z 01002KT 09/05 A3034 RMK A01 T00930051  RH  075%=      5-min Rain = 0
KVA1 090216Z 01003KT 09/05 A3034 RMK A01 T00930051  RH  075%=      5-min Rain = 0
KVA1 090217Z 01003KT 09/05 A3034 RMK A01 T00930051  RH  075%=      5-min Rain = 0
KVA1 090218Z 01003KT 09/05 A3034 RMK A01 T00920051  RH  075%=      5-min Rain = 0
KVA1 090219Z 00003KT 09/05 A3034 RMK A01 T00920050  RH  075%=      5-min Rain = 0
KVA1 090220Z 00003KT 09/05 A3034 RMK A01 T00910050  RH  075%=      5-min Rain = 0
KVA1 090221Z 00003KT 09/05 A3034 RMK A01 T00910050  RH  075%=      5-min Rain = 0
KVA1 090222Z 00003KT 09/05 A3034 RMK A01 T00910050  RH  076%=      5-min Rain = 0
KVA1 090223Z 01003KT 09/05 A3034 RMK A01 T00910050  RH  076%=      5-min Rain = 0
KVA1 090224Z 01003KT 09/05 A3034 RMK A01 T00910051  RH  076%=      5-min Rain = 0
KVA1 090225Z 01002KT 09/05 A3034 RMK A01 T00900050  RH  076%=      5-min Rain = 0
KVA1 090226Z 00002KT 09/05 A3034 RMK A01 T00900050  RH  076%=      5-min Rain = 0
KVA1 090227Z 36002KT 09/05 A3034 RMK A01 T00900050  RH  076%=      5-min Rain = 0
KVA1 090228Z 35002KT 09/05 A3034 RMK A01 T00900050  RH  076%=      5-min Rain = 0
KVA1 090229Z 34001KT 09/05 A3034 RMK A01 T00900050  RH  076%=      5-min Rain = 0
KVA1 090230Z 34002KT 09/05 A3034 RMK A01 T00900050  RH  076%=      5-min Rain = 0
KVA1 090231Z 35002KT 09/05 A3034 RMK A01 T00890050  RH  076%=      5-min Rain = 0
KVA1 090232Z 35002KT 09/05 A3034 RMK A01 T00890049  RH  076%=      5-min Rain = 0
KVA1 090233Z 35003KT 09/05 A3034 RMK A01 T00890049  RH  076%=      5-min Rain = 0
KVA1 090234Z 34003KT 09/05 A3034 RMK A01 T00880049  RH  076%=      5-min Rain = 0
KVA1 090235Z 35002KT 09/05 A3034 RMK A01 T00880050  RH  077%=      5-min Rain = 0
KVA1 090236Z 35002KT 09/05 A3034 RMK A01 T00880049  RH  077%=      5-min Rain = 0
KVA1 090237Z 34002KT 09/05 A3034 RMK A01 T00880049  RH  077%=      5-min Rain = 0
KVA1 090238Z 35002KT 09/05 A3034 RMK A01 T00880049  RH  077%=      5-min Rain = 0
KVA1 090239Z 35002KT 09/05 A3034 RMK A01 T00880049  RH  076%=      5-min Rain = 0
KVA1 090240Z 35002KT 09/05 A3034 RMK A01 T00880049  RH  076%=      5-min Rain = 0
KVA1 090241Z 34002KT 09/05 A3034 RMK A01 T00880048  RH  076%=      5-min Rain = 0
KVA1 090242Z 34002KT 09/05 A3034 RMK A01 T00880048  RH  076%=      5-min Rain = 0
KVA1 090243Z 34002KT 09/05 A3034 RMK A01 T00880048  RH  076%=      5-min Rain = 0
KVA1 090244Z 34002KT 09/05 A3034 RMK A01 T00870048  RH  076%=      5-min Rain = 0
KVA1 090245Z 34001KT 09/05 A3034 RMK A01 T00870048  RH  076%=      5-min Rain = 0
KVA1 090246Z 34001KT 09/05 A3034 RMK A01 T00870048  RH  076%=      5-min Rain = 0
KVA1 090247Z 34001KT 09/05 A3034 RMK A01 T00870048  RH  077%=      5-min Rain = 0
KVA1 090248Z 34001KT 09/05 A3034 RMK A01 T00860048  RH  077%=      5-min Rain = 0
KVA1 090249Z 34000KT 09/05 A3034 RMK A01 T00860049  RH  077%=      5-min Rain = 0
KVA1 090250Z 34001KT 09/05 A3034 RMK A01 T00870049  RH  077%=      5-min Rain = 0
KVA1 090251Z 34001KT 09/05 A3034 RMK A01 T00870048  RH  077%=      5-min Rain = 0
KVA1 090252Z 34001KT 09/05 A3033 RMK A01 T00870048  RH  076%=      5-min Rain = 0
KVA1 090253Z 34000KT 09/05 A3033 RMK A01 T00870047  RH  076%=      5-min Rain = 0
KVA1 090254Z 00000KT 09/05 A3033 RMK A01 T00870047  RH  076%=      5-min Rain = 0
KVA1 090255Z 00000KT 09/05 A3033 RMK A01 T00870047  RH  076%=      5-min Rain = 0
KVA1 090256Z 00000KT 09/05 A3033 RMK A01 T00870048  RH  076%=      5-min Rain = 0
KVA1 090257Z 00000KT 09/05 A3033 RMK A01 T00870047  RH  076%=      5-min Rain = 0
KVA1 090258Z 00000KT 09/05 A3033 RMK A01 T00860047  RH  076%=      5-min Rain = 0
KVA1 090259Z 00000KT 09/05 A3033 RMK A01 T00860046  RH  076%=      5-min Rain = 0
KVA1 090300Z 00000KT 09/05 A3033 RMK A01 T00850046  RH  076%=      5-min Rain = 0
KVA1 090301Z 22001KT 09/05 A3033 RMK A01 T00850046  RH  077%=      5-min Rain = 0
KVA1 090302Z 22001KT 08/05 A3033 RMK A01 T00840046  RH  077%=      5-min Rain = 0
KVA1 090303Z 23001KT 08/05 A3033 RMK A01 T00830046  RH  077%=      5-min Rain = 0
KVA1 090304Z 20002KT 08/05 A3033 RMK A01 T00830046  RH  077%=      5-min Rain = 0
KVA1 090305Z 19003KT 08/05 A3033 RMK A01 T00830046  RH  078%=      5-min Rain = 0
KVA1 090306Z 20002KT 08/05 A3033 RMK A01 T00820046  RH  078%=      5-min Rain = 0
KVA1 090307Z 19003KT 08/05 A3033 RMK A01 T00820046  RH  078%=      5-min Rain = 0
KVA1 090308Z 19002KT 08/05 A3034 RMK A01 T00820047  RH  079%=      5-min Rain = 0
KVA1 090309Z 20002KT 08/05 A3034 RMK A01 T00820047  RH  078%=      5-min Rain = 0
KVA1 090310Z 20002KT 08/05 A3034 RMK A01 T00820046  RH  078%=      5-min Rain = 0
KVA1 090311Z 20001KT 08/05 A3034 RMK A01 T00820046  RH  078%=      5-min Rain = 0
KVA1 090312Z 00000KT 08/05 A3034 RMK A01 T00820046  RH  078%=      5-min Rain = 0
KVA1 090313Z 00000KT 08/05 A3034 RMK A01 T00820046  RH  078%=      5-min Rain = 0
KVA1 090314Z 00000KT 08/05 A3034 RMK A01 T00820047  RH  078%=      5-min Rain = 0
KVA1 090315Z 00000KT 08/05 A3034 RMK A01 T00820047  RH  078%=      5-min Rain = 0
KVA1 090316Z 00000KT 08/05 A3034 RMK A01 T00820046  RH  078%=      5-min Rain = 0
KVA1 090317Z 00000KT 08/05 A3034 RMK A01 T00810045  RH  078%=      5-min Rain = 0
KVA1 090318Z 00000KT 08/05 A3034 RMK A01 T00810045  RH  078%=      5-min Rain = 0
KVA1 090319Z 00000KT 08/05 A3034 RMK A01 T00810046  RH  079%=      5-min Rain = 0
KVA1 090320Z 00000KT 08/05 A3034 RMK A01 T00800047  RH  079%=      5-min Rain = 0
KVA1 090321Z 00000KT 08/05 A3034 RMK A01 T00810047  RH  079%=      5-min Rain = 0
KVA1 090322Z 28000KT 08/05 A3034 RMK A01 T00810046  RH  078%=      5-min Rain = 0
KVA1 090323Z 28001KT 08/05 A3034 RMK A01 T00800045  RH  078%=      5-min Rain = 0
KVA1 090324Z 28001KT 08/04 A3034 RMK A01 T00790044  RH  079%=      5-min Rain = 0
KVA1 090325Z 28000KT 08/04 A3034 RMK A01 T00790044  RH  079%=      5-min Rain = 0
KVA1 090326Z 28000KT 08/04 A3034 RMK A01 T00780044  RH  079%=      5-min Rain = 0
KVA1 090327Z 28000KT 08/04 A3034 RMK A01 T00770043  RH  079%=      5-min Rain = 0
KVA1 090328Z 28000KT 08/04 A3034 RMK A01 T00770043  RH  079%=      5-min Rain = 0
KVA1 090329Z 00000KT 08/04 A3034 RMK A01 T00760042  RH  079%=      5-min Rain = 0
KVA1 090330Z 00000KT 08/04 A3034 RMK A01 T00750043  RH  080%=      5-min Rain = 0
KVA1 090331Z 00000KT 08/04 A3034 RMK A01 T00750042  RH  080%=      5-min Rain = 0
KVA1 090332Z 00000KT 08/04 A3034 RMK A01 T00750043  RH  080%=      5-min Rain = 0
KVA1 090333Z 34002KT 07/04 A3034 RMK A01 T00740043  RH  080%=      5-min Rain = 0
KVA1 090334Z 34002KT 07/04 A3034 RMK A01 T00740042  RH  080%=      5-min Rain = 0
KVA1 090335Z 34002KT 07/04 A3034 RMK A01 T00740043  RH  081%=      5-min Rain = 0
KVA1 090336Z 33002KT 07/04 A3034 RMK A01 T00730042  RH  081%=      5-min Rain = 0
KVA1 090337Z 34002KT 07/04 A3034 RMK A01 T00730043  RH  081%=      5-min Rain = 0
KVA1 090338Z 35002KT 07/04 A3034 RMK A01 T00730043  RH  081%=      5-min Rain = 0
KVA1 090339Z 35002KT 07/04 A3034 RMK A01 T00730043  RH  081%=      5-min Rain = 0
KVA1 090340Z 35003KT 07/04 A3034 RMK A01 T00730043  RH  081%=      5-min Rain = 0
KVA1 090341Z 35003KT 07/04 A3034 RMK A01 T00730043  RH  081%=      5-min Rain = 0
KVA1 090342Z 35003KT 07/04 A3034 RMK A01 T00730042  RH  081%=      5-min Rain = 0
KVA1 090343Z 35003KT 07/04 A3034 RMK A01 T00720042  RH  081%=      5-min Rain = 0
KVA1 090344Z 35003KT 07/04 A3034 RMK A01 T00720041  RH  081%=      5-min Rain = 0
KVA1 090345Z 35003KT 07/04 A3034 RMK A01 T00720041  RH  081%=      5-min Rain = 0
KVA1 090346Z 00003KT 07/04 A3034 RMK A01 T00710040  RH  081%=      5-min Rain = 0
KVA1 090347Z 00003KT 07/04 A3034 RMK A01 T00710040  RH  081%=      5-min Rain = 0
KVA1 090348Z 00003KT 07/04 A3034 RMK A01 T00710039  RH  081%=      5-min Rain = 0
KVA1 090349Z 00003KT 07/04 A3034 RMK A01 T00700039  RH  081%=      5-min Rain = 0
KVA1 090350Z 00003KT 07/04 A3034 RMK A01 T00690039  RH  081%=      5-min Rain = 0
KVA1 090351Z 00002KT 07/04 A3034 RMK A01 T00690039  RH  081%=      5-min Rain = 0
KVA1 090352Z 00002KT 07/04 A3034 RMK A01 T00690038  RH  081%=      5-min Rain = 0
KVA1 090353Z 00002KT 07/04 A3034 RMK A01 T00680038  RH  081%=      5-min Rain = 0
KVA1 090354Z 36003KT 07/04 A3034 RMK A01 T00680037  RH  081%=      5-min Rain = 0
KVA1 090355Z 36003KT 07/04 A3034 RMK A01 T00670037  RH  081%=      5-min Rain = 0
KVA1 090356Z 00003KT 07/04 A3034 RMK A01 T00660036  RH  081%=      5-min Rain = 0
KVA1 090357Z 01003KT 07/04 A3034 RMK A01 T00650036  RH  082%=      5-min Rain = 0
KVA1 090358Z 01003KT 07/04 A3034 RMK A01 T00650037  RH  082%=      5-min Rain = 0
KVA1 090359Z 02003KT 07/04 A3034 RMK A01 T00650037  RH  082%=      5-min Rain = 0
KVA1 090400Z 02003KT 07/04 A3034 RMK A01 T00650037  RH  082%=      5-min Rain = 0
KVA1 090401Z 02003KT 07/04 A3034 RMK A01 T00650037  RH  082%=      5-min Rain = 0
KVA1 090402Z 02003KT 07/04 A3034 RMK A01 T00650037  RH  082%=      5-min Rain = 0
KVA1 090403Z 01003KT 07/04 A3034 RMK A01 T00650037  RH  082%=      5-min Rain = 0
KVA1 090404Z 02003KT 06/04 A3034 RMK A01 T00640037  RH  083%=      5-min Rain = 0
KVA1 090405Z 02003KT 07/04 A3034 RMK A01 T00650038  RH  083%=      5-min Rain = 0
KVA1 090406Z 02002KT 07/04 A3034 RMK A01 T00650039  RH  083%=      5-min Rain = 0
KVA1 090407Z 02002KT 07/04 A3034 RMK A01 T00650039  RH  083%=      5-min Rain = 0
KVA1 090408Z 02002KT 07/04 A3034 RMK A01 T00650038  RH  083%=      5-min Rain = 0
KVA1 090409Z 02002KT 07/04 A3034 RMK A01 T00650038  RH  083%=      5-min Rain = 0
KVA1 090410Z 02003KT 07/04 A3034 RMK A01 T00650038  RH  083%=      5-min Rain = 0
KVA1 090411Z 03003KT 07/04 A3034 RMK A01 T00650038  RH  083%=      5-min Rain = 0
KVA1 090412Z 02003KT 06/04 A3034 RMK A01 T00640037  RH  083%=      5-min Rain = 0
KVA1 090413Z 02003KT 06/04 A3034 RMK A01 T00640037  RH  083%=      5-min Rain = 0
KVA1 090414Z 02003KT 06/04 A3034 RMK A01 T00640038  RH  083%=      5-min Rain = 0
KVA1 090415Z 02003KT 06/04 A3034 RMK A01 T00640038  RH  083%=      5-min Rain = 0
KVA1 090416Z 01003KT 07/04 A3034 RMK A01 T00650039  RH  084%=      5-min Rain = 0
KVA1 090417Z 01003KT 07/04 A3034 RMK A01 T00650040  RH  084%=      5-min Rain = 0
KVA1 090418Z 36003KT 07/04 A3034 RMK A01 T00650040  RH  084%=      5-min Rain = 0
KVA1 090419Z 34003KT 07/04 A3034 RMK A01 T00660040  RH  084%=      5-min Rain = 0
KVA1 090420Z 34003KT 07/04 A3034 RMK A01 T00660040  RH  083%=      5-min Rain = 0
KVA1 090421Z 34003KT 07/04 A3034 RMK A01 T00660039  RH  083%=      5-min Rain = 0
KVA1 090422Z 34003KT 07/04 A3034 RMK A01 T00660040  RH  083%=      5-min Rain = 0
KVA1 090423Z 35003KT 07/04 A3034 RMK A01 T00660040  RH  083%=      5-min Rain = 0
KVA1 090424Z 34002KT 07/04 A3034 RMK A01 T00660040  RH  084%=      5-min Rain = 0
KVA1 090425Z 34002KT 07/04 A3034 RMK A01 T00660040  RH  083%=      5-min Rain = 0
KVA1 090426Z 34002KT 07/04 A3034 RMK A01 T00650039  RH  083%=      5-min Rain = 0
KVA1 090427Z 34003KT 07/04 A3034 RMK A01 T00650039  RH  083%=      5-min Rain = 0
KVA1 090428Z 34003KT 06/04 A3034 RMK A01 T00640038  RH  083%=      5-min Rain = 0
KVA1 090429Z 34003KT 07/04 A3034 RMK A01 T00650039  RH  084%=      5-min Rain = 0
KVA1 090430Z 34003KT 06/04 A3034 RMK A01 T00640039  RH  084%=      5-min Rain = 0
KVA1 090431Z 34002KT 06/04 A3034 RMK A01 T00640039  RH  084%=      5-min Rain = 0
KVA1 090432Z 34002KT 06/04 A3034 RMK A01 T00640039  RH  084%=      5-min Rain = 0
KVA1 090433Z 34002KT 06/04 A3034 RMK A01 T00630038  RH  084%=      5-min Rain = 0
KVA1 090434Z 34002KT 06/04 A3034 RMK A01 T00630037  RH  084%=      5-min Rain = 0
KVA1 090435Z 33002KT 06/04 A3034 RMK A01 T00620037  RH  084%=      5-min Rain = 0
KVA1 090436Z 33002KT 06/04 A3034 RMK A01 T00610036  RH  084%=      5-min Rain = 0
KVA1 090437Z 33002KT 06/04 A3034 RMK A01 T00610036  RH  084%=      5-min Rain = 0
KVA1 090438Z 33001KT 06/04 A3034 RMK A01 T00610037  RH  084%=      5-min Rain = 0
KVA1 090439Z 33001KT 06/04 A3034 RMK A01 T00600036  RH  085%=      5-min Rain = 0
KVA1 090440Z 33001KT 06/04 A3034 RMK A01 T00600036  RH  085%=      5-min Rain = 0
KVA1 090441Z 33001KT 06/04 A3034 RMK A01 T00610037  RH  085%=      5-min Rain = 0
KVA1 090442Z 33001KT 06/04 A3034 RMK A01 T00600036  RH  085%=      5-min Rain = 0
KVA1 090443Z 33001KT 06/04 A3034 RMK A01 T00590035  RH  085%=      5-min Rain = 0
KVA1 090444Z 33002KT 06/04 A3034 RMK A01 T00590035  RH  085%=      5-min Rain = 0
KVA1 090445Z 33002KT 06/04 A3034 RMK A01 T00580035  RH  085%=      5-min Rain = 0
KVA1 090446Z 33002KT 06/04 A3034 RMK A01 T00580035  RH  085%=      5-min Rain = 0
KVA1 090447Z 33002KT 06/04 A3034 RMK A01 T00580035  RH  085%=      5-min Rain = 0
KVA1 090448Z 33002KT 06/04 A3034 RMK A01 T00570035  RH  086%=      5-min Rain = 0
KVA1 090449Z 33002KT 06/04 A3034 RMK A01 T00570036  RH  086%=      5-min Rain = 0
KVA1 090450Z 33002KT 06/04 A3034 RMK A01 T00570036  RH  086%=      5-min Rain = 0
KVA1 090451Z 34003KT 06/04 A3034 RMK A01 T00580036  RH  086%=      5-min Rain = 0
KVA1 090452Z 34003KT 06/04 A3034 RMK A01 T00580036  RH  086%=      5-min Rain = 0
KVA1 090453Z 34002KT 06/04 A3034 RMK A01 T00570036  RH  086%=      5-min Rain = 0
KVA1 090454Z 35002KT 06/04 A3034 RMK A01 T00580036  RH  086%=      5-min Rain = 0
KVA1 090455Z 35002KT 06/04 A3034 RMK A01 T00570036  RH  086%=      5-min Rain = 0
KVA1 090456Z 35001KT 06/04 A3034 RMK A01 T00580036  RH  086%=      5-min Rain = 0
KVA1 090457Z 35001KT 06/04 A3034 RMK A01 T00570036  RH  086%=      5-min Rain = 0
KVA1 090458Z 35002KT 06/04 A3034 RMK A01 T00580037  RH  086%=      5-min Rain = 0
KVA1 090459Z 35002KT 06/04 A3034 RMK A01 T00570036  RH  086%=      5-min Rain = 0
KVA1 090500Z 35001KT 06/04 A3034 RMK A01 T00570036  RH  086%=      5-min Rain = 0
KVA1 090501Z 35001KT 06/04 A3034 RMK A01 T00570035  RH  086%=      5-min Rain = 0
KVA1 090502Z 35001KT 06/03 A3034 RMK A01 T00560034  RH  086%=      5-min Rain = 0
KVA1 090503Z 36001KT 06/03 A3034 RMK A01 T00560034  RH  086%=      5-min Rain = 0
KVA1 090504Z 01001KT 06/03 A3034 RMK A01 T00560034  RH  086%=      5-min Rain = 0
KVA1 090505Z 01001KT 06/04 A3034 RMK A01 T00560035  RH  086%=      5-min Rain = 0
KVA1 090506Z 02001KT 06/03 A3034 RMK A01 T00550034  RH  086%=      5-min Rain = 0
KVA1 090507Z 02001KT 06/03 A3034 RMK A01 T00550034  RH  086%=      5-min Rain = 0
KVA1 090508Z 02001KT 06/03 A3034 RMK A01 T00550034  RH  086%=      5-min Rain = 0
KVA1 090509Z 02000KT 06/03 A3034 RMK A01 T00550034  RH  086%=      5-min Rain = 0
KVA1 090510Z 00000KT 06/03 A3034 RMK A01 T00550034  RH  087%=      5-min Rain = 0
KVA1 090511Z 00000KT 06/03 A3034 RMK A01 T00550034  RH  086%=      5-min Rain = 0
KVA1 090512Z 00000KT 05/03 A3034 RMK A01 T00540032  RH  086%=      5-min Rain = 0
KVA1 090513Z 36001KT 05/03 A3034 RMK A01 T00540033  RH  086%=      5-min Rain = 0
KVA1 090514Z 35001KT 05/03 A3034 RMK A01 T00540033  RH  086%=      5-min Rain = 0
KVA1 090515Z 35001KT 05/03 A3034 RMK A01 T00530032  RH  086%=      5-min Rain = 0
KVA1 090516Z 35000KT 05/03 A3034 RMK A01 T00530031  RH  086%=      5-min Rain = 0
KVA1 090517Z 00000KT 05/03 A3034 RMK A01 T00520030  RH  086%=      5-min Rain = 0
KVA1 090518Z 00000KT 05/03 A3034 RMK A01 T00510030  RH  086%=      5-min Rain = 0
KVA1 090519Z 00000KT 05/03 A3034 RMK A01 T00510031  RH  087%=      5-min Rain = 0
KVA1 090520Z 00000KT 05/03 A3034 RMK A01 T00510031  RH  087%=      5-min Rain = 0
KVA1 090521Z 26000KT 05/03 A3034 RMK A01 T00510032  RH  087%=      5-min Rain = 0
KVA1 090522Z 25001KT 05/03 A3034 RMK A01 T00520032  RH  087%=      5-min Rain = 0
KVA1 090523Z 25001KT 05/03 A3034 RMK A01 T00520032  RH  087%=      5-min Rain = 0
KVA1 090524Z 25002KT 05/03 A3034 RMK A01 T00520032  RH  087%=      5-min Rain = 0
KVA1 090525Z 25002KT 05/03 A3034 RMK A01 T00520033  RH  088%=      5-min Rain = 0
KVA1 090526Z 24002KT 05/03 A3034 RMK A01 T00520033  RH  088%=      5-min Rain = 0
KVA1 090527Z 24002KT 05/03 A3034 RMK A01 T00520034  RH  088%=      5-min Rain = 0
KVA1 090528Z 24002KT 05/03 A3034 RMK A01 T00530034  RH  088%=      5-min Rain = 0
KVA1 090529Z 24002KT 05/03 A3034 RMK A01 T00530034  RH  088%=      5-min Rain = 0
KVA1 090530Z 24002KT 05/03 A3034 RMK A01 T00520034  RH  088%=      5-min Rain = 0
KVA1 090531Z 24002KT 05/03 A3034 RMK A01 T00520034  RH  088%=      5-min Rain = 0
KVA1 090532Z 25002KT 05/04 A3034 RMK A01 T00530035  RH  088%=      5-min Rain = 0
KVA1 090533Z 25002KT 05/03 A3034 RMK A01 T00520034  RH  088%=      5-min Rain = 0
KVA1 090534Z 25002KT 05/03 A3034 RMK A01 T00530034  RH  088%=      5-min Rain = 0
KVA1 090535Z 25002KT 05/04 A3034 RMK A01 T00530035  RH  088%=      5-min Rain = 0
KVA1 090536Z 26002KT 05/04 A3034 RMK A01 T00530035  RH  088%=      5-min Rain = 0
KVA1 090537Z 26002KT 05/04 A3034 RMK A01 T00530035  RH  088%=      5-min Rain = 0
KVA1 090538Z 26001KT 05/04 A3034 RMK A01 T00530036  RH  088%=      5-min Rain = 0
KVA1 090539Z 27001KT 05/04 A3034 RMK A01 T00540036  RH  088%=      5-min Rain = 0
KVA1 090540Z 27001KT 05/04 A3034 RMK A01 T00540036  RH  088%=      5-min Rain = 0
KVA1 090541Z 27002KT 05/04 A3034 RMK A01 T00540036  RH  088%=      5-min Rain = 0
KVA1 090542Z 27002KT 05/04 A3034 RMK A01 T00540036  RH  088%=      5-min Rain = 0
KVA1 090543Z 27002KT 05/04 A3034 RMK A01 T00540035  RH  088%=      5-min Rain = 0
KVA1 090544Z 28002KT 06/04 A3034 RMK A01 T00550036  RH  088%=      5-min Rain = 0
KVA1 090545Z 28003KT 05/04 A3034 RMK A01 T00540035  RH  088%=      5-min Rain = 0
KVA1 090546Z 28003KT 05/04 A3033 RMK A01 T00540035  RH  088%=      5-min Rain = 0
KVA1 090547Z 28003KT 05/04 A3033 RMK A01 T00530035  RH  088%=      5-min Rain = 0
KVA1 090548Z 28003KT 05/03 A3033 RMK A01 T00530034  RH  088%=      5-min Rain = 0
KVA1 090549Z 29003KT 05/03 A3033 RMK A01 T00530034  RH  088%=      5-min Rain = 0
KVA1 090550Z 29003KT 05/03 A3033 RMK A01 T00530034  RH  088%=      5-min Rain = 0
KVA1 090551Z 30003KT 05/03 A3033 RMK A01 T00520034  RH  088%=      5-min Rain = 0
KVA1 090552Z 29003KT 05/03 A3033 RMK A01 T00520034  RH  088%=      5-min Rain = 0
KVA1 090553Z 29003KT 05/03 A3033 RMK A01 T00520034  RH  088%=      5-min Rain = 0
KVA1 090554Z 29004KT 05/03 A3033 RMK A01 T00520034  RH  088%=      5-min Rain = 0
KVA1 090555Z 29004KT 05/03 A3033 RMK A01 T00520034  RH  088%=      5-min Rain = 0
KVA1 090556Z 30004KT 05/03 A3033 RMK A01 T00520034  RH  088%=      5-min Rain = 0
KVA1 090557Z 30004KT 05/04 A3033 RMK A01 T00520035  RH  088%=      5-min Rain = 0
KVA1 090558Z 30004KT 05/03 A3033 RMK A01 T00520034  RH  088%=      5-min Rain = 0
KVA1 090559Z 30004KT 05/03 A3033 RMK A01 T00510034  RH  088%=      5-min Rain = 0

Page generated in 0.0718 seconds.